| time (UTC) | temp F | wind direction | speed MPH | gust MPH | rain 1hr in | rain 24hr in | rain mn in | humidity % | barometer mb |
| 20260502214304 | 52 | 90 | 4.0 | 6.0 | 0.00 | 0.00 | 0.00 | 68 | 1018.8 |
| 20260502214210 | 52 | 89 | 4.0 | 6.0 | 0.00 | 0.00 | 0.00 | 68 | 1018.9 |
| 20260502214050 | 52 | 99 | 4.0 | 6.0 | 0.00 | 0.00 | 0.00 | 68 | 1018.9 |
| 20260502214015 | 51 | 82 | 4.0 | 6.0 | 0.00 | 0.00 | 0.00 | 68 | 1018.6 |
| 20260502213945 | 52 | 82 | 4.0 | 6.0 | 0.00 | 0.00 | 0.00 | 68 | 1018.9 |
| 20260502213848 | 52 | 89 | 4.0 | 6.0 | 0.00 | 0.00 | 0.00 | 67 | 1018.9 |
| 20260502213751 | 52 | 101 | 4.0 | 6.0 | 0.00 | 0.00 | 0.00 | 67 | 1018.9 |
| 20260502213653 | 52 | 99 | 4.0 | 6.0 | 0.00 | 0.00 | 0.00 | 67 | 1018.9 |
| 20260502213609 | 51 | 82 | 4.0 | 6.0 | 0.00 | 0.00 | 0.00 | 67 | 1018.6 |
| 20260502213505 | 52 | 89 | 4.0 | 6.0 | 0.00 | 0.00 | 0.00 | 67 | 1018.9 |
| 20260502213408 | 52 | 97 | 4.0 | 6.0 | 0.00 | 0.00 | 0.00 | 66 | 1019.0 |
| 20260502213248 | 52 | 88 | 4.0 | 6.0 | 0.00 | 0.00 | 0.00 | 65 | 1018.9 |
| 20260502213142 | 52 | 80 | 4.0 | 6.0 | 0.00 | 0.00 | 0.00 | 65 | 1018.9 |
| 20260502213044 | 53 | 97 | 5.0 | 7.0 | 0.00 | 0.00 | 0.00 | 65 | 1018.9 |
| 20260502212947 | 53 | 85 | 4.0 | 6.0 | 0.00 | 0.00 | 0.00 | 64 | 1019.0 |
| 20260502212842 | 53 | 99 | 4.0 | 6.0 | 0.00 | 0.00 | 0.00 | 64 | 1019.0 |
| 20260502212749 | 53 | 86 | 4.0 | 6.0 | 0.00 | 0.00 | 0.00 | 64 | 1019.0 |
| 20260502212631 | 53 | 95 | 4.0 | 6.0 | 0.00 | 0.00 | 0.00 | 64 | 1019.0 |
| 20260502212510 | 53 | 82 | 4.0 | 6.0 | 0.00 | 0.00 | 0.00 | 64 | 1019.0 |
| 20260502212342 | 53 | 88 | 3.0 | 6.0 | 0.00 | 0.00 | 0.00 | 64 | 1019.0 |
| 20260502212245 | 53 | 79 | 3.0 | 6.0 | 0.00 | 0.00 | 0.00 | 64 | 1019.1 |
| 20260502212148 | 53 | 92 | 4.0 | 6.0 | 0.00 | 0.00 | 0.00 | 64 | 1019.0 |
| 20260502212052 | 53 | 99 | 4.0 | 6.0 | 0.00 | 0.00 | 0.00 | 64 | 1019.1 |
| 20260502212030 | 53 | 97 | 3.0 | 6.0 | 0.00 | 0.00 | 0.00 | 64 | 1018.8 |
| 20260502211945 | 53 | 99 | 3.0 | 5.0 | 0.00 | 0.00 | 0.00 | 64 | 1019.0 |
| 20260502211849 | 53 | 100 | 3.0 | 7.0 | 0.00 | 0.00 | 0.00 | 64 | 1019.1 |
| 20260502211752 | 53 | 100 | 3.0 | 7.0 | 0.00 | 0.00 | 0.00 | 64 | 1019.1 |
| 20260502211455 | 53 | 95 | 4.0 | 7.0 | 0.00 | 0.00 | 0.00 | 63 | 1019.1 |
| 20260502211359 | 53 | 93 | 4.0 | 7.0 | 0.00 | 0.00 | 0.00 | 63 | 1019.1 |
| 20260502211257 | 54 | 92 | 4.0 | 7.0 | 0.00 | 0.00 | 0.00 | 63 | 1019.1 |
| 20260502211136 | 54 | 103 | 5.0 | 7.0 | 0.00 | 0.00 | 0.00 | 63 | 1019.1 |
| 20260502211037 | 54 | 89 | 5.0 | 7.0 | 0.00 | 0.00 | 0.00 | 62 | 1019.1 |
| 20260502210940 | 54 | 99 | 4.0 | 6.0 | 0.00 | 0.00 | 0.00 | 61 | 1019.1 |
| 20260502210833 | 55 | 97 | 3.0 | 6.0 | 0.00 | 0.00 | 0.00 | 60 | 1019.1 |
| 20260502210736 | 55 | 92 | 3.0 | 6.0 | 0.00 | 0.00 | 0.00 | 60 | 1019.1 |
| 20260502210639 | 55 | 96 | 3.0 | 6.0 | 0.00 | 0.00 | 0.00 | 60 | 1019.1 |
| 20260502210607 | 54 | 95 | 3.0 | 6.0 | 0.00 | 0.00 | 0.00 | 60 | 1018.8 |
| 20260502210535 | 55 | 98 | 3.0 | 6.0 | 0.00 | 0.00 | 0.00 | 60 | 1019.1 |
| 20260502210438 | 55 | 95 | 3.0 | 6.0 | 0.00 | 0.00 | 0.00 | 59 | 1019.1 |
| 20260502210342 | 55 | 97 | 4.0 | 6.0 | 0.00 | 0.00 | 0.00 | 59 | 1019.1 |
| 20260502210211 | 56 | 97 | 3.0 | 4.0 | 0.00 | 0.00 | 0.00 | 59 | 1019.2 |
| 20260502210112 | 56 | 97 | 3.0 | 4.0 | 0.00 | 0.00 | 0.00 | 59 | 1019.1 |
| 20260502205825 | 56 | 80 | 3.0 | 4.0 | 0.00 | 0.00 | 0.00 | 59 | 1019.2 |
| 20260502205702 | 56 | 93 | 3.0 | 4.0 | 0.00 | 0.00 | 0.00 | 59 | 1019.2 |
| 20260502205602 | 56 | 101 | 2.0 | 4.0 | 0.00 | 0.00 | 0.00 | 59 | 1019.2 |
| 20260502205504 | 56 | 95 | 2.0 | 4.0 | 0.00 | 0.00 | 0.00 | 59 | 1019.2 |
| 20260502205334 | 56 | 97 | 2.0 | 4.0 | 0.00 | 0.00 | 0.00 | 59 | 1019.2 |
| 20260502205215 | 56 | 97 | 2.0 | 6.0 | 0.00 | 0.00 | 0.00 | 59 | 1019.2 |
| 20260502205055 | 56 | 87 | 3.0 | 6.0 | 0.00 | 0.00 | 0.00 | 59 | 1019.2 |
| 20260502205003 | 56 | 104 | 3.0 | 6.0 | 0.00 | 0.00 | 0.00 | 59 | 1019.3 |
| 20260502204857 | 56 | 99 | 3.0 | 6.0 | 0.00 | 0.00 | 0.00 | 59 | 1019.3 |
| 20260502204759 | 56 | 90 | 3.0 | 6.0 | 0.00 | 0.00 | 0.00 | 59 | 1019.2 |
| 20260502204701 | 56 | 103 | 3.0 | 6.0 | 0.00 | 0.00 | 0.00 | 59 | 1019.3 |
| 20260502204620 | 55 | 104 | 2.0 | 6.0 | 0.00 | 0.00 | 0.00 | 59 | 1019.0 |
| 20260502204550 | 56 | 87 | 3.0 | 6.0 | 0.00 | 0.00 | 0.00 | 59 | 1019.3 |
| 20260502204433 | 56 | 97 | 3.0 | 6.0 | 0.00 | 0.00 | 0.00 | 59 | 1019.3 |
| 20260502204334 | 56 | 99 | 4.0 | 6.0 | 0.00 | 0.00 | 0.00 | 59 | 1019.3 |
| 20260502204240 | 56 | 95 | 3.0 | 4.0 | 0.00 | 0.00 | 0.00 | 59 | 1019.3 |
| 20260502204152 | 55 | 95 | 2.0 | 4.0 | 0.00 | 0.00 | 0.00 | 59 | 1019.0 |
| 20260502204113 | 56 | 95 | 3.0 | 4.0 | 0.00 | 0.00 | 0.00 | 59 | 1019.3 |
| 20260502204013 | 56 | 95 | 3.0 | 4.0 | 0.00 | 0.00 | 0.00 | 59 | 1019.3 |
| 20260502203917 | 56 | 95 | 2.0 | 4.0 | 0.00 | 0.00 | 0.00 | 59 | 1019.3 |
| 20260502203751 | 56 | 95 | 3.0 | 4.0 | 0.00 | 0.00 | 0.00 | 59 | 1019.3 |
| 20260502203634 | 56 | 95 | 3.0 | 4.0 | 0.00 | 0.00 | 0.00 | 58 | 1019.4 |
| 20260502203518 | 56 | 93 | 3.0 | 6.0 | 0.00 | 0.00 | 0.00 | 58 | 1019.3 |
| 20260502203420 | 56 | 93 | 3.0 | 6.0 | 0.00 | 0.00 | 0.00 | 59 | 1019.3 |
| 20260502203254 | 56 | 93 | 3.0 | 6.0 | 0.00 | 0.00 | 0.00 | 59 | 1019.3 |
| 20260502203152 | 56 | 90 | 3.0 | 6.0 | 0.00 | 0.00 | 0.00 | 58 | 1019.3 |
| 20260502203049 | 56 | 90 | 3.0 | 6.0 | 0.00 | 0.00 | 0.00 | 58 | 1019.4 |
| 20260502202901 | 57 | 94 | 3.0 | 6.0 | 0.00 | 0.00 | 0.00 | 58 | 1019.4 |
| 20260502202805 | 57 | 85 | 3.0 | 6.0 | 0.00 | 0.00 | 0.00 | 58 | 1019.4 |
| 20260502202637 | 57 | 95 | 3.0 | 6.0 | 0.00 | 0.00 | 0.00 | 57 | 1019.3 |
| 20260502202537 | 57 | 91 | 3.0 | 6.0 | 0.00 | 0.00 | 0.00 | 57 | 1019.4 |
| 20260502202439 | 57 | 91 | 3.0 | 6.0 | 0.00 | 0.00 | 0.00 | 57 | 1019.4 |
| 20260502202312 | 57 | 94 | 3.0 | 6.0 | 0.00 | 0.00 | 0.00 | 57 | 1019.4 |
| 20260502202215 | 57 | 94 | 3.0 | 6.0 | 0.00 | 0.00 | 0.00 | 57 | 1019.4 |
| 20260502202118 | 57 | 80 | 3.0 | 6.0 | 0.00 | 0.00 | 0.00 | 57 | 1019.4 |
| 20260502202023 | 57 | 95 | 3.0 | 6.0 | 0.00 | 0.00 | 0.00 | 57 | 1019.4 |
| 20260502201916 | 57 | 98 | 3.0 | 4.0 | 0.00 | 0.00 | 0.00 | 57 | 1019.5 |
| 20260502201818 | 57 | 108 | 3.0 | 4.0 | 0.00 | 0.00 | 0.00 | 57 | 1019.5 |
| 20260502201721 | 57 | 100 | 3.0 | 4.0 | 0.00 | 0.00 | 0.00 | 57 | 1019.5 |
| 20260502201655 | 57 | 91 | 2.0 | 4.0 | 0.00 | 0.00 | 0.00 | 57 | 1019.2 |
| 20260502201614 | 57 | 89 | 3.0 | 4.0 | 0.00 | 0.00 | 0.00 | 57 | 1019.5 |
| 20260502201512 | 57 | 101 | 3.0 | 4.0 | 0.00 | 0.00 | 0.00 | 57 | 1019.5 |
| 20260502201420 | 57 | 95 | 3.0 | 4.0 | 0.00 | 0.00 | 0.00 | 57 | 1019.5 |
| 20260502201314 | 57 | 89 | 3.0 | 4.0 | 0.00 | 0.00 | 0.00 | 57 | 1019.4 |
| 20260502201154 | 57 | 93 | 3.0 | 4.0 | 0.00 | 0.00 | 0.00 | 57 | 1019.6 |
| 20260502201055 | 57 | 93 | 3.0 | 4.0 | 0.00 | 0.00 | 0.00 | 56 | 1019.5 |
| 20260502201026 | 57 | 91 | 3.0 | 4.0 | 0.00 | 0.00 | 0.00 | 56 | 1019.2 |
| 20260502200949 | 57 | 93 | 3.0 | 4.0 | 0.00 | 0.00 | 0.00 | 56 | 1019.5 |
| 20260502200830 | 58 | 95 | 3.0 | 4.0 | 0.00 | 0.00 | 0.00 | 56 | 1019.5 |
| 20260502200732 | 58 | 96 | 3.0 | 4.0 | 0.00 | 0.00 | 0.00 | 56 | 1019.5 |
| 20260502200638 | 58 | 92 | 2.0 | 4.0 | 0.00 | 0.00 | 0.00 | 56 | 1019.5 |
| 20260502200613 | 57 | 79 | 2.0 | 4.0 | 0.00 | 0.00 | 0.00 | 56 | 1019.2 |
| 20260502200531 | 58 | 94 | 2.0 | 4.0 | 0.00 | 0.00 | 0.00 | 56 | 1019.5 |
| 20260502200433 | 58 | 94 | 2.0 | 4.0 | 0.00 | 0.00 | 0.00 | 56 | 1019.5 |
| 20260502200337 | 58 | 95 | 2.0 | 4.0 | 0.00 | 0.00 | 0.00 | 56 | 1019.5 |
| 20260502200229 | 58 | 97 | 3.0 | 4.0 | 0.00 | 0.00 | 0.00 | 56 | 1019.5 |
| 20260502200111 | 58 | 93 | 3.0 | 4.0 | 0.00 | 0.00 | 0.00 | 55 | 1019.5 |
| 20260502200016 | 58 | 93 | 3.0 | 4.0 | 0.00 | 0.00 | 0.00 | 55 | 1019.4 |
| 20260502195918 | 58 | 96 | 3.0 | 4.0 | 0.00 | 0.00 | 0.00 | 55 | 1019.5 |
| 20260502195810 | 58 | 91 | 3.0 | 4.0 | 0.00 | 0.00 | 0.00 | 55 | 1019.5 |
| 20260502195713 | 58 | 97 | 3.0 | 4.0 | 0.00 | 0.00 | 0.00 | 55 | 1019.5 |
| 20260502195552 | 58 | 94 | 2.0 | 4.0 | 0.00 | 0.00 | 0.00 | 55 | 1019.5 |
| 20260502195525 | 58 | 94 | 2.0 | 4.0 | 0.00 | 0.00 | 0.00 | 55 | 1019.2 |
| 20260502195446 | 58 | 89 | 2.0 | 4.0 | 0.00 | 0.00 | 0.00 | 55 | 1019.5 |
| 20260502195333 | 58 | 89 | 2.0 | 4.0 | 0.00 | 0.00 | 0.00 | 55 | 1019.5 |
| 20260502195054 | 58 | 89 | 2.0 | 4.0 | 0.00 | 0.00 | 0.00 | 54 | 1019.6 |
| 20260502194935 | 58 | 89 | 2.0 | 4.0 | 0.00 | 0.00 | 0.00 | 54 | 1019.5 |
| 20260502194828 | 58 | 89 | 3.0 | 4.0 | 0.00 | 0.00 | 0.00 | 54 | 1019.5 |
| 20260502194732 | 58 | 88 | 3.0 | 4.0 | 0.00 | 0.00 | 0.00 | 54 | 1019.5 |
| 20260502194611 | 58 | 90 | 3.0 | 5.0 | 0.00 | 0.00 | 0.00 | 54 | 1019.6 |
| 20260502194457 | 59 | 95 | 3.0 | 5.0 | 0.00 | 0.00 | 0.00 | 53 | 1019.5 |
| 20260502194350 | 59 | 93 | 3.0 | 5.0 | 0.00 | 0.00 | 0.00 | 53 | 1019.6 |
| 20260502194253 | 59 | 93 | 3.0 | 5.0 | 0.00 | 0.00 | 0.00 | 53 | 1019.5 |
| 20260502194154 | 59 | 95 | 3.0 | 5.0 | 0.00 | 0.00 | 0.00 | 52 | 1019.5 |
| 20260502194054 | 59 | 82 | 3.0 | 5.0 | 0.00 | 0.00 | 0.00 | 52 | 1019.5 |
| 20260502194033 | 58 | 89 | 3.0 | 5.0 | 0.00 | 0.00 | 0.00 | 52 | 1019.2 |
| 20260502193946 | 59 | 85 | 3.0 | 5.0 | 0.00 | 0.00 | 0.00 | 52 | 1019.5 |
| 20260502193833 | 59 | 93 | 4.0 | 5.0 | 0.00 | 0.00 | 0.00 | 53 | 1019.5 |
| 20260502193727 | 59 | 84 | 4.0 | 5.0 | 0.00 | 0.00 | 0.00 | 53 | 1019.5 |
| 20260502193630 | 59 | 91 | 3.0 | 5.0 | 0.00 | 0.00 | 0.00 | 53 | 1019.5 |
| 20260502193509 | 59 | 103 | 3.0 | 5.0 | 0.00 | 0.00 | 0.00 | 53 | 1019.6 |
| 20260502193231 | 59 | 95 | 3.0 | 5.0 | 0.00 | 0.00 | 0.00 | 52 | 1019.5 |
| 20260502193134 | 59 | 105 | 3.0 | 5.0 | 0.00 | 0.00 | 0.00 | 52 | 1019.6 |
| 20260502193119 | 59 | 91 | 3.0 | 5.0 | 0.00 | 0.00 | 0.00 | 52 | 1019.3 |
| 20260502193029 | 59 | 91 | 3.0 | 5.0 | 0.00 | 0.00 | 0.00 | 52 | 1019.6 |
| 20260502192932 | 60 | 96 | 3.0 | 5.0 | 0.00 | 0.00 | 0.00 | 52 | 1019.6 |
| 20260502192813 | 60 | 95 | 3.0 | 5.0 | 0.00 | 0.00 | 0.00 | 52 | 1019.6 |
| 20260502192657 | 60 | 98 | 3.0 | 5.0 | 0.00 | 0.00 | 0.00 | 52 | 1019.6 |
| 20260502192633 | 59 | 101 | 3.0 | 5.0 | 0.00 | 0.00 | 0.00 | 52 | 1019.2 |
| 20260502192529 | 60 | 95 | 3.0 | 5.0 | 0.00 | 0.00 | 0.00 | 52 | 1019.5 |
| 20260502192432 | 60 | 93 | 3.0 | 5.0 | 0.00 | 0.00 | 0.00 | 51 | 1019.6 |
| 20260502192330 | 60 | 97 | 2.0 | 4.0 | 0.00 | 0.00 | 0.00 | 51 | 1019.6 |
| 20260502192230 | 60 | 105 | 2.0 | 4.0 | 0.00 | 0.00 | 0.00 | 51 | 1019.6 |
| 20260502192110 | 60 | 89 | 2.0 | 3.0 | 0.00 | 0.00 | 0.00 | 51 | 1019.6 |
| 20260502191952 | 60 | 89 | 2.0 | 3.0 | 0.00 | 0.00 | 0.00 | 51 | 1019.6 |
| 20260502191846 | 60 | 89 | 2.0 | 4.0 | 0.00 | 0.00 | 0.00 | 51 | 1019.6 |
| 20260502191749 | 60 | 95 | 2.0 | 4.0 | 0.00 | 0.00 | 0.00 | 51 | 1019.5 |
| 20260502191552 | 60 | 94 | 1.0 | 5.0 | 0.00 | 0.00 | 0.00 | 51 | 1019.2 |
| 20260502191518 | 60 | 94 | 2.0 | 5.0 | 0.00 | 0.00 | 0.00 | 50 | 1019.5 |
| 20260502191421 | 60 | 94 | 1.0 | 5.0 | 0.00 | 0.00 | 0.00 | 50 | 1019.5 |
| 20260502191324 | 60 | 94 | 2.0 | 5.0 | 0.00 | 0.00 | 0.00 | 50 | 1019.5 |
| 20260502191144 | 60 | 94 | 3.0 | 5.0 | 0.00 | 0.00 | 0.00 | 50 | 1019.4 |
| 20260502191120 | 60 | 94 | 3.0 | 5.0 | 0.00 | 0.00 | 0.00 | 50 | 1019.1 |
| 20260502191034 | 61 | 94 | 4.0 | 5.0 | 0.00 | 0.00 | 0.00 | 50 | 1019.5 |
| 20260502190917 | 61 | 89 | 4.0 | 5.0 | 0.00 | 0.00 | 0.00 | 50 | 1019.4 |
| 20260502190759 | 61 | 100 | 3.0 | 5.0 | 0.00 | 0.00 | 0.00 | 49 | 1019.5 |
| 20260502190657 | 61 | 92 | 3.0 | 5.0 | 0.00 | 0.00 | 0.00 | 49 | 1019.4 |
| 20260502190537 | 61 | 86 | 2.0 | 5.0 | 0.00 | 0.00 | 0.00 | 49 | 1019.4 |
| 20260502190441 | 61 | 99 | 3.0 | 5.0 | 0.00 | 0.00 | 0.00 | 49 | 1019.4 |
| 20260502190334 | 61 | 90 | 3.0 | 5.0 | 0.00 | 0.00 | 0.00 | 49 | 1019.5 |
| 20260502190235 | 61 | 90 | 3.0 | 6.0 | 0.00 | 0.00 | 0.00 | 49 | 1019.4 |
| 20260502190138 | 61 | 84 | 3.0 | 6.0 | 0.00 | 0.00 | 0.00 | 49 | 1019.5 |
| 20260502190057 | 61 | 92 | 3.0 | 6.0 | 0.00 | 0.00 | 0.00 | 49 | 1019.1 |
| 20260502185904 | 61 | 103 | 3.0 | 6.0 | 0.00 | 0.00 | 0.00 | 48 | 1019.4 |
| 20260502185807 | 62 | 95 | 3.0 | 6.0 | 0.00 | 0.00 | 0.00 | 48 | 1019.4 |
| 20260502185648 | 62 | 97 | 3.0 | 6.0 | 0.00 | 0.00 | 0.00 | 48 | 1019.4 |
| 20260502185619 | 61 | 87 | 3.0 | 6.0 | 0.00 | 0.00 | 0.00 | 48 | 1019.1 |
| 20260502185540 | 62 | 96 | 4.0 | 6.0 | 0.00 | 0.00 | 0.00 | 48 | 1019.4 |
| 20260502185442 | 62 | 97 | 4.0 | 6.0 | 0.00 | 0.00 | 0.00 | 47 | 1019.4 |
| 20260502185343 | 62 | 99 | 4.0 | 5.0 | 0.00 | 0.00 | 0.00 | 47 | 1019.4 |
| 20260502185251 | 62 | 90 | 3.0 | 5.0 | 0.00 | 0.00 | 0.00 | 47 | 1019.4 |
| 20260502185145 | 62 | 89 | 3.0 | 6.0 | 0.00 | 0.00 | 0.00 | 46 | 1019.4 |
| 20260502185047 | 62 | 91 | 3.0 | 6.0 | 0.00 | 0.00 | 0.00 | 46 | 1019.4 |
| 20260502184950 | 62 | 87 | 3.0 | 6.0 | 0.00 | 0.00 | 0.00 | 46 | 1019.4 |
| 20260502184843 | 62 | 83 | 3.0 | 6.0 | 0.00 | 0.00 | 0.00 | 46 | 1019.4 |
| 20260502184746 | 62 | 85 | 3.0 | 6.0 | 0.00 | 0.00 | 0.00 | 46 | 1019.4 |
| 20260502184648 | 62 | 102 | 3.0 | 6.0 | 0.00 | 0.00 | 0.00 | 46 | 1019.4 |
| 20260502184602 | 62 | 93 | 3.0 | 6.0 | 0.00 | 0.00 | 0.00 | 46 | 1019.0 |
| 20260502184522 | 63 | 99 | 4.0 | 6.0 | 0.00 | 0.00 | 0.00 | 46 | 1019.4 |
| 20260502184401 | 63 | 94 | 3.0 | 6.0 | 0.00 | 0.00 | 0.00 | 46 | 1019.4 |
| 20260502184305 | 63 | 92 | 4.0 | 6.0 | 0.00 | 0.00 | 0.00 | 46 | 1019.3 |
| 20260502184144 | 63 | 97 | 4.0 | 5.0 | 0.00 | 0.00 | 0.00 | 45 | 1019.3 |
| 20260502184119 | 63 | 79 | 3.0 | 5.0 | 0.00 | 0.00 | 0.00 | 45 | 1019.0 |
| 20260502184035 | 63 | 85 | 4.0 | 5.0 | 0.00 | 0.00 | 0.00 | 45 | 1019.3 |
| 20260502183917 | 63 | 88 | 4.0 | 6.0 | 0.00 | 0.00 | 0.00 | 45 | 1019.3 |
| 20260502183803 | 63 | 91 | 4.0 | 5.0 | 0.00 | 0.00 | 0.00 | 45 | 1019.3 |
| 20260502183659 | 64 | 112 | 4.0 | 6.0 | 0.00 | 0.00 | 0.00 | 44 | 1019.3 |
| 20260502183558 | 64 | 97 | 4.0 | 5.0 | 0.00 | 0.00 | 0.00 | 44 | 1019.2 |
| 20260502183501 | 64 | 101 | 4.0 | 6.0 | 0.00 | 0.00 | 0.00 | 44 | 1019.2 |
| 20260502183404 | 64 | 98 | 4.0 | 6.0 | 0.00 | 0.00 | 0.00 | 44 | 1019.2 |
| 20260502183257 | 64 | 105 | 4.0 | 6.0 | 0.00 | 0.00 | 0.00 | 44 | 1019.3 |
| 20260502183157 | 64 | 85 | 4.0 | 5.0 | 0.00 | 0.00 | 0.00 | 44 | 1019.3 |
| 20260502183102 | 64 | 82 | 4.0 | 6.0 | 0.00 | 0.00 | 0.00 | 44 | 1019.2 |
| 20260502183030 | 63 | 107 | 3.0 | 6.0 | 0.00 | 0.00 | 0.00 | 44 | 1018.9 |
| 20260502182957 | 64 | 96 | 4.0 | 6.0 | 0.00 | 0.00 | 0.00 | 44 | 1019.3 |
| 20260502182859 | 64 | 91 | 4.0 | 6.0 | 0.00 | 0.00 | 0.00 | 43 | 1019.3 |
| 20260502182623 | 64 | 91 | 4.0 | 6.0 | 0.00 | 0.00 | 0.00 | 43 | 1019.2 |
| 20260502182557 | 64 | 93 | 4.0 | 6.0 | 0.00 | 0.00 | 0.00 | 43 | 1018.9 |
| 20260502182513 | 65 | 101 | 5.0 | 6.0 | 0.00 | 0.00 | 0.00 | 43 | 1019.2 |
| 20260502182421 | 65 | 90 | 5.0 | 6.0 | 0.00 | 0.00 | 0.00 | 43 | 1019.2 |
| 20260502182324 | 65 | 97 | 5.0 | 7.0 | 0.00 | 0.00 | 0.00 | 43 | 1019.2 |
| 20260502182152 | 65 | 97 | 5.0 | 6.0 | 0.00 | 0.00 | 0.00 | 42 | 1019.2 |
| 20260502182053 | 65 | 88 | 5.0 | 6.0 | 0.00 | 0.00 | 0.00 | 42 | 1019.2 |
| 20260502181955 | 65 | 92 | 5.0 | 6.0 | 0.00 | 0.00 | 0.00 | 42 | 1019.2 |
| 20260502181859 | 66 | 101 | 5.0 | 6.0 | 0.00 | 0.00 | 0.00 | 41 | 1019.2 |
| 20260502181753 | 66 | 95 | 4.0 | 6.0 | 0.00 | 0.00 | 0.00 | 41 | 1019.1 |
| 20260502181701 | 66 | 94 | 4.0 | 5.0 | 0.00 | 0.00 | 0.00 | 41 | 1019.1 |
| 20260502181602 | 66 | 93 | 4.0 | 6.0 | 0.00 | 0.00 | 0.00 | 41 | 1019.1 |
| 20260502181443 | 66 | 89 | 3.0 | 6.0 | 0.00 | 0.00 | 0.00 | 40 | 1019.1 |
| 20260502181337 | 67 | 80 | 3.0 | 4.0 | 0.00 | 0.00 | 0.00 | 40 | 1019.1 |
| 20260502181237 | 67 | 87 | 3.0 | 4.0 | 0.00 | 0.00 | 0.00 | 40 | 1019.1 |
| 20260502181140 | 67 | 91 | 3.0 | 4.0 | 0.00 | 0.00 | 0.00 | 40 | 1019.1 |
| 20260502181107 | 67 | 82 | 2.0 | 4.0 | 0.00 | 0.00 | 0.00 | 40 | 1018.8 |
| 20260502181036 | 67 | 88 | 3.0 | 4.0 | 0.00 | 0.00 | 0.00 | 40 | 1019.1 |
| 20260502180938 | 67 | 89 | 3.0 | 4.0 | 0.00 | 0.00 | 0.00 | 39 | 1019.1 |
| 20260502180838 | 68 | 85 | 2.0 | 3.0 | 0.00 | 0.00 | 0.00 | 39 | 1019.1 |
| 20260502180720 | 68 | 85 | 2.0 | 3.0 | 0.00 | 0.00 | 0.00 | 39 | 1019.2 |
| 20260502180659 | 67 | 85 | 2.0 | 3.0 | 0.00 | 0.00 | 0.00 | 39 | 1018.8 |
| 20260502180614 | 68 | 85 | 2.0 | 3.0 | 0.00 | 0.00 | 0.00 | 39 | 1019.1 |
| 20260502180515 | 68 | 85 | 2.0 | 3.0 | 0.00 | 0.00 | 0.00 | 39 | 1019.1 |
| 20260502180418 | 68 | 84 | 2.0 | 4.0 | 0.00 | 0.00 | 0.00 | 39 | 1019.1 |
| 20260502180317 | 68 | 84 | 2.0 | 4.0 | 0.00 | 0.00 | 0.00 | 38 | 1019.1 |
| 20260502180155 | 68 | 84 | 2.0 | 4.0 | 0.00 | 0.00 | 0.00 | 38 | 1019.1 |
| 20260502170427 | 73 | 78 | 6.0 | 9.0 | 0.00 | 0.00 | 0.00 | 32 | 1019.2 |
| 20260502170322 | 73 | 103 | 5.0 | 10.0 | 0.00 | 0.00 | 0.00 | 32 | 1019.1 |
| 20260502170202 | 73 | 98 | 6.0 | 10.0 | 0.00 | 0.00 | 0.00 | 32 | 1019.1 |
| 20260502164332 | 74 | 114 | 5.0 | 11.0 | 0.00 | 0.00 | 0.00 | 31 | 1019.3 |
| 20260502164212 | 74 | 97 | 5.0 | 11.0 | 0.00 | 0.00 | 0.00 | 30 | 1019.4 |
| 20260502164145 | 73 | 82 | 4.0 | 11.0 | 0.00 | 0.00 | 0.00 | 30 | 1019.0 |
| 20260502164104 | 74 | 70 | 4.0 | 11.0 | 0.00 | 0.00 | 0.00 | 29 | 1019.3 |
| 20260502164006 | 74 | 85 | 5.0 | 11.0 | 0.00 | 0.00 | 0.00 | 30 | 1019.3 |
| 20260502163909 | 74 | 96 | 6.0 | 11.0 | 0.00 | 0.00 | 0.00 | 29 | 1019.3 |
| 20260502163740 | 74 | 77 | 5.0 | 9.0 | 0.00 | 0.00 | 0.00 | 30 | 1019.3 |
| 20260502163626 | 74 | 111 | 5.0 | 9.0 | 0.00 | 0.00 | 0.00 | 30 | 1019.3 |
| 20260502163526 | 74 | 89 | 6.0 | 9.0 | 0.00 | 0.00 | 0.00 | 30 | 1019.3 |
| 20260502163427 | 74 | 102 | 5.0 | 9.0 | 0.00 | 0.00 | 0.00 | 30 | 1019.3 |
| 20260502163259 | 74 | 96 | 4.0 | 9.0 | 0.00 | 0.00 | 0.00 | 30 | 1019.3 |
| 20260502163200 | 74 | 89 | 5.0 | 10.0 | 0.00 | 0.00 | 0.00 | 30 | 1019.4 |
| 20260502163100 | 74 | 103 | 5.0 | 10.0 | 0.00 | 0.00 | 0.00 | 30 | 1019.4 |
| 20260502163007 | 74 | 76 | 4.0 | 10.0 | 0.00 | 0.00 | 0.00 | 30 | 1019.4 |
| 20260502162859 | 74 | 74 | 5.0 | 10.0 | 0.00 | 0.00 | 0.00 | 29 | 1019.4 |
| 20260502162800 | 74 | 87 | 6.0 | 10.0 | 0.00 | 0.00 | 0.00 | 30 | 1019.4 |
| 20260502162701 | 74 | 95 | 6.0 | 12.0 | 0.00 | 0.00 | 0.00 | 31 | 1019.4 |
| 20260502162635 | 74 | 93 | 6.0 | 12.0 | 0.00 | 0.00 | 0.00 | 31 | 1019.1 |
| 20260502162553 | 74 | 94 | 6.0 | 12.0 | 0.00 | 0.00 | 0.00 | 30 | 1019.5 |
| 20260502162456 | 74 | 92 | 6.0 | 12.0 | 0.00 | 0.00 | 0.00 | 30 | 1019.5 |
| 20260502162357 | 74 | 105 | 7.0 | 12.0 | 0.00 | 0.00 | 0.00 | 29 | 1019.5 |
| 20260502162256 | 74 | 99 | 7.0 | 12.0 | 0.00 | 0.00 | 0.00 | 29 | 1019.5 |
| 20260502162158 | 75 | 88 | 6.0 | 12.0 | 0.00 | 0.00 | 0.00 | 30 | 1019.5 |
| 20260502162057 | 75 | 70 | 6.0 | 12.0 | 0.00 | 0.00 | 0.00 | 30 | 1019.5 |
| 20260502161939 | 75 | 84 | 6.0 | 12.0 | 0.00 | 0.00 | 0.00 | 29 | 1019.6 |
| 20260502161833 | 75 | 72 | 5.0 | 11.0 | 0.00 | 0.00 | 0.00 | 28 | 1019.5 |
| 20260502161714 | 75 | 78 | 5.0 | 11.0 | 0.00 | 0.00 | 0.00 | 29 | 1019.6 |
| 20260502161621 | 75 | 64 | 5.0 | 11.0 | 0.00 | 0.00 | 0.00 | 29 | 1019.6 |
| 20260502161551 | 74 | 102 | 5.0 | 11.0 | 0.00 | 0.00 | 0.00 | 29 | 1019.2 |
| 20260502161512 | 75 | 77 | 6.0 | 11.0 | 0.00 | 0.00 | 0.00 | 29 | 1019.6 |
| 20260502161415 | 75 | 80 | 7.0 | 11.0 | 0.00 | 0.00 | 0.00 | 28 | 1019.6 |
| 20260502161318 | 75 | 89 | 7.0 | 11.0 | 0.00 | 0.00 | 0.00 | 29 | 1019.6 |
| 20260502161208 | 75 | 112 | 7.0 | 11.0 | 0.00 | 0.00 | 0.00 | 28 | 1019.6 |
| 20260502161047 | 75 | 93 | 6.0 | 10.0 | 0.00 | 0.00 | 0.00 | 29 | 1019.6 |
| 20260502160950 | 75 | 97 | 5.0 | 10.0 | 0.00 | 0.00 | 0.00 | 29 | 1019.6 |
| 20260502160834 | 75 | 105 | 6.0 | 10.0 | 0.00 | 0.00 | 0.00 | 29 | 1019.6 |
| 20260502160707 | 75 | 82 | 6.0 | 10.0 | 0.00 | 0.00 | 0.00 | 29 | 1019.6 |
| 20260502160610 | 75 | 75 | 5.0 | 10.0 | 0.00 | 0.00 | 0.00 | 29 | 1019.7 |
| 20260502160509 | 75 | 80 | 4.0 | 10.0 | 0.00 | 0.00 | 0.00 | 29 | 1019.6 |
| 20260502160341 | 75 | 85 | 4.0 | 10.0 | 0.00 | 0.00 | 0.00 | 30 | 1019.7 |
| 20260502160220 | 75 | 99 | 5.0 | 10.0 | 0.00 | 0.00 | 0.00 | 30 | 1019.6 |
| 20260502160126 | 75 | 74 | 5.0 | 10.0 | 0.00 | 0.00 | 0.00 | 29 | 1019.6 |
| 20260502152229 | 76 | 59 | 3.0 | 10.0 | 0.00 | 0.00 | 0.00 | 28 | 1020.1 |
| 20260502152131 | 76 | 64 | 3.0 | 10.0 | 0.00 | 0.00 | 0.00 | 29 | 1020.1 |
| 20260502151853 | 76 | 118 | 6.0 | 11.0 | 0.00 | 0.00 | 0.00 | 28 | 1020.1 |
| 20260502151756 | 76 | 99 | 5.0 | 11.0 | 0.00 | 0.00 | 0.00 | 29 | 1020.2 |
| 20260502151702 | 76 | 83 | 5.0 | 11.0 | 0.00 | 0.00 | 0.00 | 30 | 1020.2 |
| 20260502151634 | 75 | 95 | 5.0 | 11.0 | 0.00 | 0.00 | 0.00 | 30 | 1019.8 |
| 20260502151554 | 76 | 83 | 6.0 | 11.0 | 0.00 | 0.00 | 0.00 | 29 | 1020.2 |
| 20260502151458 | 76 | 91 | 7.0 | 11.0 | 0.00 | 0.00 | 0.00 | 29 | 1020.2 |
| 20260502151400 | 76 | 98 | 7.0 | 11.0 | 0.00 | 0.00 | 0.00 | 30 | 1020.2 |
| 20260502151254 | 76 | 85 | 7.0 | 11.0 | 0.00 | 0.00 | 0.00 | 28 | 1020.2 |
| 20260502151155 | 76 | 73 | 6.0 | 11.0 | 0.00 | 0.00 | 0.00 | 29 | 1020.2 |
| 20260502151057 | 76 | 97 | 3.0 | 10.0 | 0.00 | 0.00 | 0.00 | 28 | 1020.2 |
| 20260502151003 | 76 | 92 | 4.0 | 10.0 | 0.00 | 0.00 | 0.00 | 28 | 1020.2 |
| 20260502150856 | 76 | 69 | 6.0 | 10.0 | 0.00 | 0.00 | 0.00 | 28 | 1020.3 |
| 20260502150800 | 76 | 97 | 6.0 | 11.0 | 0.00 | 0.00 | 0.00 | 28 | 1020.2 |
| 20260502150640 | 76 | 89 | 5.0 | 11.0 | 0.00 | 0.00 | 0.00 | 29 | 1020.3 |
| 20260502150606 | 75 | 57 | 4.0 | 11.0 | 0.00 | 0.00 | 0.00 | 29 | 1019.9 |
| 20260502150532 | 76 | 92 | 5.0 | 11.0 | 0.00 | 0.00 | 0.00 | 28 | 1020.3 |
| 20260502150436 | 76 | 74 | 5.0 | 11.0 | 0.00 | 0.00 | 0.00 | 27 | 1020.3 |
| 20260502150344 | 76 | 57 | 6.0 | 11.0 | 0.00 | 0.00 | 0.00 | 29 | 1020.3 |
| 20260502150224 | 76 | 80 | 5.0 | 11.0 | 0.00 | 0.00 | 0.00 | 28 | 1020.3 |
| 20260502150201 | 75 | 77 | 5.0 | 11.0 | 0.00 | 0.00 | 0.00 | 28 | 1019.9 |
| 20260502150116 | 76 | 54 | 7.0 | 11.0 | 0.00 | 0.00 | 0.00 | 29 | 1020.3 |
| 20260502140104 | 76 | 59 | 5.0 | 9.0 | 0.00 | 0.00 | 0.00 | 29 | 1020.9 |
| 20260502130735 | 75 | 105 | 6.0 | 10.0 | 0.00 | 0.00 | 0.00 | 30 | 1021.6 |
| 20260502130637 | 75 | 81 | 6.0 | 10.0 | 0.00 | 0.00 | 0.00 | 31 | 1021.7 |
| 20260502130537 | 75 | 36 | 6.0 | 10.0 | 0.00 | 0.00 | 0.00 | 30 | 1021.7 |
| 20260502130239 | 75 | 33 | 4.0 | 9.0 | 0.00 | 0.00 | 0.00 | 31 | 1021.7 |
| 20260502130120 | 75 | 104 | 6.0 | 9.0 | 0.00 | 0.00 | 0.00 | 30 | 1021.7 |
| 20260502123753 | 74 | 51 | 5.0 | 11.0 | 0.00 | 0.00 | 0.00 | 33 | 1021.9 |
| 20260502123652 | 74 | 32 | 5.0 | 11.0 | 0.00 | 0.00 | 0.00 | 33 | 1021.9 |
| 20260502123618 | 74 | 61 | 4.0 | 11.0 | 0.00 | 0.00 | 0.00 | 32 | 1021.7 |
| 20260502123543 | 74 | 55 | 6.0 | 11.0 | 0.00 | 0.00 | 0.00 | 33 | 1021.9 |
| 20260502123404 | 74 | 103 | 7.0 | 11.0 | 0.00 | 0.00 | 0.00 | 32 | 1021.9 |
| 20260502123311 | 74 | 97 | 7.0 | 12.0 | 0.00 | 0.00 | 0.00 | 33 | 1021.9 |
| 20260502123212 | 74 | 31 | 7.0 | 13.0 | 0.00 | 0.00 | 0.00 | 32 | 1022.0 |
| 20260502123147 | 74 | 80 | 6.0 | 13.0 | 0.00 | 0.00 | 0.00 | 32 | 1021.8 |
| 20260502123103 | 75 | 82 | 6.0 | 13.0 | 0.00 | 0.00 | 0.00 | 32 | 1022.0 |
| 20260502123004 | 75 | 64 | 5.0 | 13.0 | 0.00 | 0.00 | 0.00 | 33 | 1022.0 |
| 20260502122907 | 74 | 106 | 6.0 | 13.0 | 0.00 | 0.00 | 0.00 | 32 | 1022.0 |
| 20260502122800 | 74 | 94 | 7.0 | 13.0 | 0.00 | 0.00 | 0.00 | 32 | 1022.0 |
| 20260502122702 | 74 | 97 | 5.0 | 13.0 | 0.00 | 0.00 | 0.00 | 31 | 1022.1 |
| 20260502122609 | 74 | 68 | 7.0 | 13.0 | 0.00 | 0.00 | 0.00 | 31 | 1022.1 |
| 20260502122510 | 75 | 45 | 9.0 | 13.0 | 0.00 | 0.00 | 0.00 | 32 | 1022.1 |
| 20260502122403 | 75 | 75 | 6.0 | 12.0 | 0.00 | 0.00 | 0.00 | 33 | 1022.2 |
| 20260502122306 | 75 | 52 | 4.0 | 12.0 | 0.00 | 0.00 | 0.00 | 32 | 1022.2 |
| 20260502122207 | 75 | 107 | 7.0 | 12.0 | 0.00 | 0.00 | 0.00 | 31 | 1022.2 |
| 20260502122115 | 74 | 93 | 6.0 | 12.0 | 0.00 | 0.00 | 0.00 | 31 | 1021.9 |
| 20260502122038 | 75 | 85 | 6.0 | 12.0 | 0.00 | 0.00 | 0.00 | 31 | 1022.2 |
| 20260502121945 | 75 | 78 | 5.0 | 11.0 | 0.00 | 0.00 | 0.00 | 31 | 1022.3 |
| 20260502121848 | 74 | 38 | 6.0 | 12.0 | 0.00 | 0.00 | 0.00 | 31 | 1022.3 |
| 20260502121750 | 74 | 102 | 5.0 | 12.0 | 0.00 | 0.00 | 0.00 | 31 | 1022.2 |
| 20260502121644 | 74 | 48 | 2.0 | 12.0 | 0.00 | 0.00 | 0.00 | 30 | 1022.3 |
| 20260502121524 | 74 | 98 | 2.0 | 12.0 | 0.00 | 0.00 | 0.00 | 29 | 1022.3 |
| 20260502121405 | 74 | 114 | 4.0 | 12.0 | 0.00 | 0.00 | 0.00 | 30 | 1022.3 |
| 20260502121238 | 74 | 87 | 6.0 | 12.0 | 0.00 | 0.00 | 0.00 | 29 | 1022.4 |
| 20260502121144 | 75 | 60 | 6.0 | 12.0 | 0.00 | 0.00 | 0.00 | 27 | 1022.4 |
| 20260502121044 | 75 | 117 | 7.0 | 12.0 | 0.00 | 0.00 | 0.00 | 29 | 1022.4 |
| 20260502121010 | 74 | 93 | 7.0 | 11.0 | 0.00 | 0.00 | 0.00 | 29 | 1022.1 |
| 20260502120939 | 75 | 100 | 7.0 | 12.0 | 0.00 | 0.00 | 0.00 | 30 | 1022.4 |
| 20260502120840 | 75 | 89 | 7.0 | 12.0 | 0.00 | 0.00 | 0.00 | 30 | 1022.4 |
| 20260502120722 | 75 | 107 | 6.0 | 12.0 | 0.00 | 0.00 | 0.00 | 30 | 1022.4 |
| 20260502120624 | 74 | 98 | 4.0 | 12.0 | 0.00 | 0.00 | 0.00 | 29 | 1022.4 |
| 20260502120601 | 74 | 103 | 3.0 | 12.0 | 0.00 | 0.00 | 0.00 | 29 | 1022.2 |
| 20260502120521 | 74 | 118 | 5.0 | 12.0 | 0.00 | 0.00 | 0.00 | 29 | 1022.5 |
| 20260502120402 | 74 | 93 | 7.0 | 12.0 | 0.00 | 0.00 | 0.00 | 30 | 1022.4 |
| 20260502120306 | 74 | 147 | 8.0 | 12.0 | 0.00 | 0.00 | 0.00 | 28 | 1022.4 |
| 20260502120156 | 74 | 107 | 7.0 | 12.0 | 0.00 | 0.00 | 0.00 | 29 | 1022.4 |
| 20260502115914 | 74 | 118 | 8.0 | 12.0 | 0.00 | 0.00 | 0.00 | 30 | 1022.4 |
| 20260502115818 | 74 | 91 | 6.0 | 12.0 | 0.00 | 0.00 | 0.00 | 31 | 1022.5 |
| 20260502115655 | 74 | 112 | 4.0 | 9.0 | 0.00 | 0.00 | 0.00 | 29 | 1022.5 |
| 20260502115555 | 74 | 77 | 4.0 | 9.0 | 0.00 | 0.00 | 0.00 | 30 | 1022.5 |
| 20260502115457 | 74 | 94 | 5.0 | 10.0 | 0.00 | 0.00 | 0.00 | 29 | 1022.5 |
| 20260502115401 | 74 | 78 | 5.0 | 11.0 | 0.00 | 0.00 | 0.00 | 30 | 1022.5 |
| 20260502115254 | 74 | 84 | 4.0 | 11.0 | 0.00 | 0.00 | 0.00 | 29 | 1022.5 |
| 20260502115154 | 74 | 101 | 3.0 | 11.0 | 0.00 | 0.00 | 0.00 | 30 | 1022.5 |
| 20260502115059 | 74 | 74 | 3.0 | 12.0 | 0.00 | 0.00 | 0.00 | 31 | 1022.6 |
| 20260502115026 | 73 | 93 | 3.0 | 12.0 | 0.00 | 0.00 | 0.00 | 31 | 1022.4 |
| 20260502114952 | 74 | 77 | 4.0 | 12.0 | 0.00 | 0.00 | 0.00 | 30 | 1022.6 |
| 20260502114834 | 74 | 64 | 6.0 | 12.0 | 0.00 | 0.00 | 0.00 | 28 | 1022.6 |
| 20260502114738 | 74 | 112 | 7.0 | 12.0 | 0.00 | 0.00 | 0.00 | 29 | 1022.6 |
| 20260502114620 | 74 | 69 | 6.0 | 12.0 | 0.00 | 0.00 | 0.00 | 29 | 1022.6 |
| 20260502114555 | 73 | 56 | 6.0 | 12.0 | 0.00 | 0.00 | 0.00 | 30 | 1022.4 |
| 20260502114512 | 74 | 69 | 6.0 | 12.0 | 0.00 | 0.00 | 0.00 | 31 | 1022.6 |
| 20260502114354 | 74 | 87 | 7.0 | 12.0 | 0.00 | 0.00 | 0.00 | 31 | 1022.6 |
| 20260502114133 | 74 | 63 | 5.0 | 11.0 | 0.00 | 0.00 | 0.00 | 30 | 1022.7 |
| 20260502114033 | 74 | 56 | 4.0 | 14.0 | 0.00 | 0.00 | 0.00 | 30 | 1022.7 |
| 20260502113937 | 74 | 80 | 6.0 | 14.0 | 0.00 | 0.00 | 0.00 | 31 | 1022.7 |
| 20260502113839 | 74 | 97 | 6.0 | 14.0 | 0.00 | 0.00 | 0.00 | 30 | 1022.7 |
| 20260502113734 | 74 | 75 | 6.0 | 14.0 | 0.00 | 0.00 | 0.00 | 31 | 1022.7 |
| 20260502113639 | 74 | 76 | 5.0 | 14.0 | 0.00 | 0.00 | 0.00 | 30 | 1022.7 |
| 20260502113540 | 74 | 78 | 5.0 | 14.0 | 0.00 | 0.00 | 0.00 | 29 | 1022.8 |
| 20260502113442 | 74 | 81 | 6.0 | 14.0 | 0.00 | 0.00 | 0.00 | 30 | 1022.7 |
| 20260502113335 | 73 | 78 | 8.0 | 14.0 | 0.00 | 0.00 | 0.00 | 29 | 1022.8 |
| 20260502113151 | 73 | 120 | 8.0 | 14.0 | 0.00 | 0.00 | 0.00 | 29 | 1022.8 |
| 20260502113052 | 73 | 120 | 5.0 | 10.0 | 0.00 | 0.00 | 0.00 | 28 | 1022.7 |
| 20260502113029 | 73 | 103 | 4.0 | 10.0 | 0.00 | 0.00 | 0.00 | 30 | 1022.5 |
| 20260502112924 | 73 | 89 | 5.0 | 10.0 | 0.00 | 0.00 | 0.00 | 30 | 1022.8 |
| 20260502112830 | 73 | 70 | 5.0 | 10.0 | 0.00 | 0.00 | 0.00 | 29 | 1022.8 |
| 20260502112712 | 73 | 37 | 5.0 | 10.0 | 0.00 | 0.00 | 0.00 | 28 | 1022.8 |
| 20260502112635 | 73 | 49 | 4.0 | 10.0 | 0.00 | 0.00 | 0.00 | 28 | 1022.7 |
| 20260502112602 | 73 | 49 | 5.0 | 10.0 | 0.00 | 0.00 | 0.00 | 29 | 1022.9 |
| 20260502112444 | 73 | 69 | 7.0 | 10.0 | 0.00 | 0.00 | 0.00 | 30 | 1022.9 |
| 20260502112347 | 73 | 111 | 7.0 | 10.0 | 0.00 | 0.00 | 0.00 | 31 | 1023.0 |
| 20260502112247 | 73 | 97 | 7.0 | 10.0 | 0.00 | 0.00 | 0.00 | 32 | 1023.0 |
| 20260502112013 | 73 | 68 | 4.0 | 8.0 | 0.00 | 0.00 | 0.00 | 35 | 1023.0 |
| 20260502111855 | 73 | 51 | 4.0 | 7.0 | 0.00 | 0.00 | 0.00 | 35 | 1023.0 |
| 20260502111749 | 73 | 93 | 4.0 | 7.0 | 0.00 | 0.00 | 0.00 | 36 | 1023.1 |
| 20260502111653 | 73 | 78 | 4.0 | 10.0 | 0.00 | 0.00 | 0.00 | 36 | 1023.1 |
| 20260502111555 | 73 | 102 | 4.0 | 10.0 | 0.00 | 0.00 | 0.00 | 38 | 1023.0 |
| 20260502111524 | 73 | 103 | 3.0 | 10.0 | 0.00 | 0.00 | 0.00 | 38 | 1022.9 |
| 20260502111429 | 73 | 73 | 3.0 | 10.0 | 0.00 | 0.00 | 0.00 | 35 | 1023.1 |
| 20260502111336 | 73 | 16 | 4.0 | 11.0 | 0.00 | 0.00 | 0.00 | 37 | 1023.1 |
| 20260502111216 | 73 | 97 | 3.0 | 11.0 | 0.00 | 0.00 | 0.00 | 35 | 1023.1 |
| 20260502111152 | 72 | 79 | 3.0 | 11.0 | 0.00 | 0.00 | 0.00 | 35 | 1022.9 |
| 20260502111046 | 73 | 101 | 5.0 | 11.0 | 0.00 | 0.00 | 0.00 | 35 | 1023.2 |
| 20260502110948 | 73 | 91 | 4.0 | 11.0 | 0.00 | 0.00 | 0.00 | 35 | 1023.2 |
| 20260502110852 | 73 | 102 | 4.0 | 11.0 | 0.00 | 0.00 | 0.00 | 34 | 1023.2 |
| 20260502110727 | 73 | 99 | 5.0 | 11.0 | 0.00 | 0.00 | 0.00 | 35 | 1023.2 |
| 20260502110613 | 73 | 98 | 7.0 | 12.0 | 0.00 | 0.00 | 0.00 | 36 | 1023.2 |
| 20260502110514 | 73 | 100 | 6.0 | 12.0 | 0.00 | 0.00 | 0.00 | 36 | 1023.2 |
| 20260502110406 | 73 | 35 | 5.0 | 13.0 | 0.00 | 0.00 | 0.00 | 34 | 1023.2 |
| 20260502110308 | 73 | 89 | 7.0 | 13.0 | 0.00 | 0.00 | 0.00 | 35 | 1023.2 |
| 20260502110126 | 73 | 104 | 8.0 | 13.0 | 0.00 | 0.00 | 0.00 | 34 | 1023.2 |
| 20260502110055 | 72 | 70 | 7.0 | 13.0 | 0.00 | 0.00 | 0.00 | 34 | 1023.1 |
| 20260502105956 | 73 | 128 | 7.0 | 13.0 | 0.00 | 0.00 | 0.00 | 34 | 1023.4 |
| 20260502105902 | 73 | 77 | 8.0 | 13.0 | 0.00 | 0.00 | 0.00 | 34 | 1023.3 |
| 20260502105806 | 73 | 78 | 6.0 | 13.0 | 0.00 | 0.00 | 0.00 | 35 | 1023.3 |
| 20260502105647 | 73 | 39 | 7.0 | 13.0 | 0.00 | 0.00 | 0.00 | 34 | 1023.4 |
| 20260502105621 | 72 | 55 | 7.0 | 13.0 | 0.00 | 0.00 | 0.00 | 33 | 1023.2 |
| 20260502105539 | 73 | 82 | 7.0 | 13.0 | 0.00 | 0.00 | 0.00 | 33 | 1023.4 |
| 20260502105442 | 72 | 91 | 5.0 | 11.0 | 0.00 | 0.00 | 0.00 | 36 | 1023.4 |
| 20260502105346 | 72 | 97 | 4.0 | 10.0 | 0.00 | 0.00 | 0.00 | 33 | 1023.4 |
| 20260502105238 | 72 | 82 | 5.0 | 10.0 | 0.00 | 0.00 | 0.00 | 33 | 1023.4 |
| 20260502105146 | 72 | 1 | 6.0 | 10.0 | 0.00 | 0.00 | 0.00 | 33 | 1023.4 |
| 20260502105046 | 72 | 87 | 3.0 | 10.0 | 0.00 | 0.00 | 0.00 | 34 | 1023.4 |
| 20260502104917 | 72 | 41 | 4.0 | 10.0 | 0.00 | 0.00 | 0.00 | 34 | 1023.5 |
| 20260502104758 | 72 | 72 | 5.0 | 10.0 | 0.00 | 0.00 | 0.00 | 35 | 1023.5 |
| 20260502104702 | 72 | 60 | 5.0 | 10.0 | 0.00 | 0.00 | 0.00 | 35 | 1023.5 |
| 20260502104625 | 72 | 66 | 4.0 | 10.0 | 0.00 | 0.00 | 0.00 | 35 | 1023.3 |
| 20260502104552 | 72 | 31 | 5.0 | 10.0 | 0.00 | 0.00 | 0.00 | 35 | 1023.5 |
| 20260502104459 | 72 | 114 | 4.0 | 10.0 | 0.00 | 0.00 | 0.00 | 35 | 1023.5 |
| 20260502104402 | 72 | 96 | 4.0 | 8.0 | 0.00 | 0.00 | 0.00 | 37 | 1023.6 |
| 20260502104304 | 72 | 90 | 3.0 | 9.0 | 0.00 | 0.00 | 0.00 | 37 | 1023.6 |
| 20260502104154 | 72 | 74 | 5.0 | 9.0 | 0.00 | 0.00 | 0.00 | 35 | 1023.5 |
| 20260502104054 | 72 | 112 | 5.0 | 12.0 | 0.00 | 0.00 | 0.00 | 36 | 1023.6 |
| 20260502103935 | 72 | 110 | 4.0 | 12.0 | 0.00 | 0.00 | 0.00 | 35 | 1023.6 |
| 20260502103829 | 72 | 89 | 5.0 | 12.0 | 0.00 | 0.00 | 0.00 | 34 | 1023.6 |
| 20260502103735 | 72 | 78 | 5.0 | 12.0 | 0.00 | 0.00 | 0.00 | 34 | 1023.7 |
| 20260502103638 | 72 | 82 | 6.0 | 12.0 | 0.00 | 0.00 | 0.00 | 33 | 1023.7 |
| 20260502103538 | 72 | 66 | 6.0 | 12.0 | 0.00 | 0.00 | 0.00 | 34 | 1023.7 |
| 20260502103513 | 72 | 78 | 6.0 | 12.0 | 0.00 | 0.00 | 0.00 | 34 | 1023.5 |
| 20260502103432 | 72 | 84 | 7.0 | 12.0 | 0.00 | 0.00 | 0.00 | 33 | 1023.7 |
| 20260502103336 | 72 | 105 | 8.0 | 12.0 | 0.00 | 0.00 | 0.00 | 34 | 1023.7 |
| 20260502103215 | 72 | 89 | 7.0 | 12.0 | 0.00 | 0.00 | 0.00 | 35 | 1023.7 |
| 20260502103144 | 72 | 92 | 6.0 | 12.0 | 0.00 | 0.00 | 0.00 | 35 | 1023.5 |
| 20260502103113 | 72 | 84 | 5.0 | 11.0 | 0.00 | 0.00 | 0.00 | 35 | 1023.7 |
| 20260502103012 | 72 | 89 | 4.0 | 11.0 | 0.00 | 0.00 | 0.00 | 33 | 1023.7 |
| 20260502102854 | 72 | 66 | 4.0 | 11.0 | 0.00 | 0.00 | 0.00 | 33 | 1023.7 |
| 20260502102729 | 72 | 95 | 7.0 | 11.0 | 0.00 | 0.00 | 0.00 | 33 | 1023.8 |
| 20260502102631 | 72 | 92 | 6.0 | 11.0 | 0.00 | 0.00 | 0.00 | 34 | 1023.8 |
| 20260502102511 | 73 | 115 | 4.0 | 8.0 | 0.00 | 0.00 | 0.00 | 33 | 1023.8 |
| 20260502102409 | 73 | 108 | 3.0 | 10.0 | 0.00 | 0.00 | 0.00 | 33 | 1023.8 |
| 20260502102312 | 73 | 99 | 3.0 | 10.0 | 0.00 | 0.00 | 0.00 | 33 | 1023.8 |
| 20260502102213 | 73 | 74 | 2.0 | 10.0 | 0.00 | 0.00 | 0.00 | 34 | 1023.8 |
| 20260502102141 | 72 | 103 | 2.0 | 10.0 | 0.00 | 0.00 | 0.00 | 34 | 1023.6 |
| 20260502102102 | 72 | 55 | 3.0 | 10.0 | 0.00 | 0.00 | 0.00 | 32 | 1023.8 |
| 20260502102005 | 72 | 48 | 3.0 | 10.0 | 0.00 | 0.00 | 0.00 | 33 | 1023.8 |
| 20260502101908 | 72 | 89 | 4.0 | 10.0 | 0.00 | 0.00 | 0.00 | 35 | 1023.8 |
| 20260502101749 | 72 | 97 | 5.0 | 10.0 | 0.00 | 0.00 | 0.00 | 34 | 1023.9 |
| 20260502101645 | 72 | 70 | 6.0 | 10.0 | 0.00 | 0.00 | 0.00 | 34 | 1023.9 |
| 20260502101451 | 72 | 76 | 3.0 | 8.0 | 0.00 | 0.00 | 0.00 | 33 | 1023.9 |
| 20260502101153 | 72 | 229 | 1.0 | 8.0 | 0.00 | 0.00 | 0.00 | 33 | 1024.0 |
| 20260502101054 | 72 | 239 | 1.0 | 8.0 | 0.00 | 0.00 | 0.00 | 35 | 1024.0 |
| 20260502101020 | 72 | 333 | 1.0 | 8.0 | 0.00 | 0.00 | 0.00 | 34 | 1023.8 |
| 20260502100932 | 72 | 328 | 3.0 | 8.0 | 0.00 | 0.00 | 0.00 | 34 | 1024.0 |
| 20260502100835 | 72 | 76 | 3.0 | 10.0 | 0.00 | 0.00 | 0.00 | 36 | 1024.1 |
| 20260502100736 | 72 | 90 | 4.0 | 10.0 | 0.00 | 0.00 | 0.00 | 34 | 1024.1 |
| 20260502100630 | 72 | 95 | 6.0 | 10.0 | 0.00 | 0.00 | 0.00 | 35 | 1024.1 |
| 20260502100532 | 72 | 86 | 4.0 | 10.0 | 0.00 | 0.00 | 0.00 | 36 | 1024.1 |
| 20260502100414 | 72 | 67 | 3.0 | 10.0 | 0.00 | 0.00 | 0.00 | 36 | 1024.1 |
| 20260502100307 | 72 | 95 | 3.0 | 10.0 | 0.00 | 0.00 | 0.00 | 37 | 1024.1 |
| 20260502100211 | 72 | 85 | 4.0 | 10.0 | 0.00 | 0.00 | 0.00 | 35 | 1024.1 |
| 20260502091534 | 71 | 76 | 3.0 | 7.0 | 0.00 | 0.00 | 0.00 | 40 | 1024.8 |
| 20260502091438 | 71 | 70 | 3.0 | 7.0 | 0.00 | 0.00 | 0.00 | 43 | 1024.8 |
| 20260502091346 | 71 | 70 | 2.0 | 7.0 | 0.00 | 0.00 | 0.00 | 41 | 1024.8 |
| 20260502091237 | 71 | 53 | 3.0 | 7.0 | 0.00 | 0.00 | 0.00 | 41 | 1024.8 |
| 20260502091118 | 71 | 30 | 4.0 | 7.0 | 0.00 | 0.00 | 0.00 | 40 | 1024.7 |
| 20260502091020 | 71 | 47 | 4.0 | 7.0 | 0.00 | 0.00 | 0.00 | 41 | 1024.8 |
| 20260502090923 | 71 | 83 | 3.0 | 6.0 | 0.00 | 0.00 | 0.00 | 40 | 1024.8 |
| 20260502090817 | 71 | 78 | 2.0 | 6.0 | 0.00 | 0.00 | 0.00 | 41 | 1024.9 |
| 20260502090659 | 71 | 36 | 1.0 | 6.0 | 0.00 | 0.00 | 0.00 | 41 | 1024.8 |
| 20260502090607 | 71 | 36 | 2.0 | 6.0 | 0.00 | 0.00 | 0.00 | 41 | 1024.8 |
| 20260502090529 | 70 | 35 | 2.0 | 6.0 | 0.00 | 0.00 | 0.00 | 41 | 1024.7 |
| 20260502090458 | 71 | 35 | 4.0 | 6.0 | 0.00 | 0.00 | 0.00 | 41 | 1024.8 |
| 20260502090359 | 71 | 59 | 2.0 | 6.0 | 0.00 | 0.00 | 0.00 | 41 | 1024.9 |
| 20260502090218 | 71 | 41 | 3.0 | 6.0 | 0.00 | 0.00 | 0.00 | 41 | 1024.9 |
| 20260502090121 | 70 | 96 | 3.0 | 6.0 | 0.00 | 0.00 | 0.00 | 41 | 1024.9 |
| 20260502071516 | 61 | 16 | 0.0 | 1.0 | 0.00 | 0.00 | 0.00 | 58 | 1025.5 |
| 20260502071419 | 61 | 16 | 0.0 | 2.0 | 0.00 | 0.00 | 0.00 | 58 | 1025.6 |
| 20260502071313 | 61 | 16 | 0.0 | 2.0 | 0.00 | 0.00 | 0.00 | 59 | 1025.6 |
| 20260502071215 | 61 | 16 | 0.0 | 2.0 | 0.00 | 0.00 | 0.00 | 59 | 1025.6 |
| 20260502071124 | 61 | 16 | 0.0 | 2.0 | 0.00 | 0.00 | 0.00 | 59 | 1025.5 |
| 20260502071026 | 61 | 16 | 0.0 | 2.0 | 0.00 | 0.00 | 0.00 | 60 | 1025.6 |
| 20260502071003 | 60 | 16 | 0.0 | 2.0 | 0.00 | 0.00 | 0.00 | 61 | 1025.5 |
| 20260502070920 | 61 | 16 | 0.0 | 3.0 | 0.00 | 0.00 | 0.00 | 62 | 1025.5 |
| 20260502070824 | 60 | 16 | 0.0 | 3.0 | 0.00 | 0.00 | 0.00 | 61 | 1025.5 |
| 20260502070727 | 60 | 16 | 0.0 | 3.0 | 0.00 | 0.00 | 0.00 | 61 | 1025.5 |
| 20260502070659 | 60 | 16 | 0.0 | 3.0 | 0.00 | 0.00 | 0.00 | 61 | 1025.5 |
| 20260502070621 | 60 | 16 | 1.0 | 3.0 | 0.00 | 0.00 | 0.00 | 62 | 1025.5 |
| 20260502070500 | 60 | 16 | 1.0 | 3.0 | 0.00 | 0.00 | 0.00 | 63 | 1025.5 |
| 20260502070408 | 60 | 355 | 1.0 | 3.0 | 0.00 | 0.00 | 0.00 | 63 | 1025.5 |
| 20260502070310 | 59 | 298 | 1.0 | 3.0 | 0.00 | 0.00 | 0.00 | 63 | 1025.5 |
| 20260502070143 | 59 | 295 | 1.0 | 3.0 | 0.00 | 0.00 | 0.00 | 64 | 1025.6 |
| 20260502070044 | 59 | 220 | 1.0 | 2.0 | 0.00 | 0.00 | 0.00 | 66 | 1025.5 |
| 20260502065945 | 58 | 220 | 0.0 | 2.0 | 0.00 | 0.00 | 0.00 | 65 | 1025.6 |
| 20260502065817 | 58 | 220 | 0.0 | 2.0 | 0.00 | 0.00 | 0.00 | 65 | 1025.6 |
| 20260502065725 | 58 | 220 | 0.0 | 2.0 | 0.00 | 0.00 | 0.00 | 66 | 1025.6 |
| 20260502065628 | 58 | 220 | 0.0 | 2.0 | 0.00 | 0.00 | 0.00 | 67 | 1025.6 |
| 20260502065551 | 57 | 220 | 0.0 | 2.0 | 0.00 | 0.00 | 0.00 | 67 | 1025.6 |
| 20260502065519 | 58 | 220 | 0.0 | 2.0 | 0.00 | 0.00 | 0.00 | 67 | 1025.6 |
| 20260502065422 | 57 | 220 | 1.0 | 2.0 | 0.00 | 0.00 | 0.00 | 68 | 1025.6 |
| 20260502065325 | 57 | 220 | 1.0 | 3.0 | 0.00 | 0.00 | 0.00 | 68 | 1025.6 |
| 20260502065226 | 57 | 220 | 1.0 | 3.0 | 0.00 | 0.00 | 0.00 | 69 | 1025.6 |
| 20260502065159 | 56 | 220 | 1.0 | 3.0 | 0.00 | 0.00 | 0.00 | 67 | 1025.6 |
| 20260502065120 | 57 | 220 | 1.0 | 3.0 | 0.00 | 0.00 | 0.00 | 68 | 1025.6 |
| 20260502065023 | 56 | 220 | 0.0 | 3.0 | 0.00 | 0.00 | 0.00 | 68 | 1025.6 |
| 20260502064738 | 56 | 220 | 1.0 | 3.0 | 0.00 | 0.00 | 0.00 | 68 | 1025.6 |
| 20260502064631 | 56 | 220 | 1.0 | 3.0 | 0.00 | 0.00 | 0.00 | 68 | 1025.6 |
| 20260502064531 | 56 | 220 | 2.0 | 3.0 | 0.00 | 0.00 | 0.00 | 69 | 1025.6 |
| 20260502064434 | 56 | 220 | 2.0 | 3.0 | 0.00 | 0.00 | 0.00 | 68 | 1025.6 |
| 20260502064328 | 55 | 220 | 1.0 | 3.0 | 0.00 | 0.00 | 0.00 | 69 | 1025.6 |
| 20260502064234 | 55 | 97 | 1.0 | 2.0 | 0.00 | 0.00 | 0.00 | 69 | 1025.7 |
| 20260502064116 | 55 | 97 | 1.0 | 2.0 | 0.00 | 0.00 | 0.00 | 70 | 1025.6 |
| 20260502064017 | 55 | 97 | 0.0 | 2.0 | 0.00 | 0.00 | 0.00 | 71 | 1025.6 |
| 20260502063909 | 55 | 97 | 0.0 | 3.0 | 0.00 | 0.00 | 0.00 | 71 | 1025.6 |
| 20260502063812 | 55 | 97 | 0.0 | 3.0 | 0.00 | 0.00 | 0.00 | 71 | 1025.7 |
| 20260502063714 | 54 | 97 | 0.0 | 3.0 | 0.00 | 0.00 | 0.00 | 71 | 1025.6 |
| 20260502063620 | 54 | 97 | 0.0 | 3.0 | 0.00 | 0.00 | 0.00 | 72 | 1025.7 |
| 20260502063556 | 53 | 97 | 0.0 | 3.0 | 0.00 | 0.00 | 0.00 | 72 | 1025.7 |
| 20260502063512 | 54 | 97 | 0.0 | 3.0 | 0.00 | 0.00 | 0.00 | 72 | 1025.7 |
| 20260502063354 | 54 | 97 | 1.0 | 3.0 | 0.00 | 0.00 | 0.00 | 73 | 1025.7 |
| 20260502063256 | 54 | 97 | 1.0 | 3.0 | 0.00 | 0.00 | 0.00 | 73 | 1025.7 |
| 20260502063148 | 53 | 97 | 1.0 | 3.0 | 0.00 | 0.00 | 0.00 | 73 | 1025.7 |
| 20260502063048 | 53 | 97 | 0.0 | 0.0 | 0.00 | 0.00 | 0.00 | 74 | 1025.7 |
| 20260502062951 | 53 | 97 | 0.0 | 0.0 | 0.00 | 0.00 | 0.00 | 74 | 1025.7 |
| 20260502062830 | 53 | 97 | 0.0 | 1.0 | 0.00 | 0.00 | 0.00 | 74 | 1025.7 |
| 20260502062731 | 53 | 97 | 0.0 | 2.0 | 0.00 | 0.00 | 0.00 | 74 | 1025.7 |
| 20260502062614 | 53 | 97 | 0.0 | 2.0 | 0.00 | 0.00 | 0.00 | 74 | 1025.7 |
| 20260502062553 | 52 | 97 | 0.0 | 2.0 | 0.00 | 0.00 | 0.00 | 74 | 1025.7 |
| 20260502062505 | 52 | 97 | 0.0 | 2.0 | 0.00 | 0.00 | 0.00 | 74 | 1025.7 |
| 20260502062408 | 52 | 97 | 0.0 | 2.0 | 0.00 | 0.00 | 0.00 | 75 | 1025.7 |
| 20260502062310 | 52 | 97 | 0.0 | 2.0 | 0.00 | 0.00 | 0.00 | 75 | 1025.7 |
| 20260502062207 | 52 | 97 | 0.0 | 2.0 | 0.00 | 0.00 | 0.00 | 75 | 1025.7 |
| 20260502062026 | 52 | 97 | 1.0 | 3.0 | 0.00 | 0.00 | 0.00 | 75 | 1025.8 |
| 20260502061929 | 52 | 97 | 1.0 | 3.0 | 0.00 | 0.00 | 0.00 | 75 | 1025.7 |
| 20260502061813 | 51 | 97 | 1.0 | 3.0 | 0.00 | 0.00 | 0.00 | 76 | 1025.7 |
| 20260502061705 | 51 | 97 | 0.0 | 3.0 | 0.00 | 0.00 | 0.00 | 76 | 1025.8 |
| 20260502061610 | 51 | 97 | 0.0 | 3.0 | 0.00 | 0.00 | 0.00 | 75 | 1025.8 |
| 20260502061407 | 51 | 97 | 2.0 | 3.0 | 0.00 | 0.00 | 0.00 | 76 | 1025.8 |
| 20260502061309 | 51 | 97 | 2.0 | 3.0 | 0.00 | 0.00 | 0.00 | 77 | 1025.8 |
| 20260502061148 | 51 | 97 | 1.0 | 3.0 | 0.00 | 0.00 | 0.00 | 77 | 1025.7 |
| 20260502061049 | 50 | 97 | 2.0 | 3.0 | 0.00 | 0.00 | 0.00 | 77 | 1025.8 |
| 20260502061026 | 50 | 97 | 1.0 | 3.0 | 0.00 | 0.00 | 0.00 | 77 | 1025.8 |
| 20260502060921 | 50 | 97 | 2.0 | 3.0 | 0.00 | 0.00 | 0.00 | 77 | 1025.8 |
| 20260502060825 | 50 | 97 | 1.0 | 3.0 | 0.00 | 0.00 | 0.00 | 78 | 1025.8 |
| 20260502060731 | 50 | 97 | 1.0 | 3.0 | 0.00 | 0.00 | 0.00 | 78 | 1025.8 |
| 20260502060631 | 49 | 97 | 0.0 | 3.0 | 0.00 | 0.00 | 0.00 | 78 | 1025.8 |
| 20260502060538 | 50 | 97 | 1.0 | 3.0 | 0.00 | 0.00 | 0.00 | 78 | 1025.8 |
| 20260502060441 | 50 | 97 | 2.0 | 3.0 | 0.00 | 0.00 | 0.00 | 79 | 1025.9 |
| 20260502060343 | 50 | 97 | 1.0 | 3.0 | 0.00 | 0.00 | 0.00 | 80 | 1025.8 |
| 20260502060224 | 49 | 97 | 1.0 | 3.0 | 0.00 | 0.00 | 0.00 | 80 | 1025.7 |
| 20260502060127 | 49 | 97 | 1.0 | 2.0 | 0.00 | 0.00 | 0.00 | 81 | 1025.8 |
| 20260502060111 | 49 | 97 | 1.0 | 2.0 | 0.00 | 0.00 | 0.00 | 81 | 1025.8 |
| 20260502060023 | 49 | 97 | 1.0 | 2.0 | 0.00 | 0.00 | 0.00 | 81 | 1025.8 |
| 20260502055758 | 49 | 97 | 1.0 | 2.0 | 0.00 | 0.00 | 0.00 | 82 | 1025.7 |
| 20260502055651 | 49 | 97 | 1.0 | 2.0 | 0.00 | 0.00 | 0.00 | 82 | 1025.8 |
| 20260502055531 | 48 | 97 | 0.0 | 0.0 | 0.00 | 0.00 | 0.00 | 82 | 1025.8 |
| 20260502055413 | 48 | 97 | 0.0 | 0.0 | 0.00 | 0.00 | 0.00 | 82 | 1025.8 |
| 20260502055307 | 48 | 97 | 0.0 | 0.0 | 0.00 | 0.00 | 0.00 | 82 | 1025.8 |
| 20260502055212 | 48 | 97 | 0.0 | 0.0 | 0.00 | 0.00 | 0.00 | 83 | 1025.8 |
| 20260502055115 | 48 | 97 | 0.0 | 0.0 | 0.00 | 0.00 | 0.00 | 83 | 1025.8 |
| 20260502055017 | 48 | 97 | 0.0 | 0.0 | 0.00 | 0.00 | 0.00 | 83 | 1025.8 |
| 20260502054830 | 47 | 97 | 0.0 | 0.0 | 0.00 | 0.00 | 0.00 | 83 | 1025.8 |
| 20260502054731 | 47 | 97 | 0.0 | 0.0 | 0.00 | 0.00 | 0.00 | 84 | 1025.7 |
| 20260502054603 | 47 | 97 | 0.0 | 0.0 | 0.00 | 0.00 | 0.00 | 84 | 1025.7 |
| 20260502054510 | 47 | 97 | 0.0 | 0.0 | 0.00 | 0.00 | 0.00 | 84 | 1025.7 |
| 20260502054412 | 47 | 97 | 0.0 | 0.0 | 0.00 | 0.00 | 0.00 | 85 | 1025.7 |
| 20260502054244 | 47 | 97 | 0.0 | 0.0 | 0.00 | 0.00 | 0.00 | 86 | 1025.7 |
| 20260502054146 | 46 | 97 | 0.0 | 0.0 | 0.00 | 0.00 | 0.00 | 86 | 1025.7 |
| 20260502054044 | 46 | 97 | 0.0 | 0.0 | 0.00 | 0.00 | 0.00 | 87 | 1025.8 |
| 20260502054007 | 46 | 97 | 0.0 | 0.0 | 0.00 | 0.00 | 0.00 | 87 | 1025.8 |
| 20260502053937 | 46 | 97 | 0.0 | 0.0 | 0.00 | 0.00 | 0.00 | 87 | 1025.8 |
| 20260502053840 | 46 | 97 | 0.0 | 0.0 | 0.00 | 0.00 | 0.00 | 87 | 1025.8 |
| 20260502053747 | 46 | 97 | 0.0 | 0.0 | 0.00 | 0.00 | 0.00 | 87 | 1025.7 |
| 20260502053650 | 46 | 97 | 0.0 | 0.0 | 0.00 | 0.00 | 0.00 | 87 | 1025.7 |
| 20260502053553 | 45 | 97 | 0.0 | 0.0 | 0.00 | 0.00 | 0.00 | 87 | 1025.8 |
| 20260502053521 | 45 | 97 | 0.0 | 0.0 | 0.00 | 0.00 | 0.00 | 87 | 1025.8 |
| 20260502053342 | 45 | 97 | 0.0 | 0.0 | 0.00 | 0.00 | 0.00 | 87 | 1025.8 |
| 20260502053244 | 45 | 97 | 0.0 | 0.0 | 0.00 | 0.00 | 0.00 | 88 | 1025.8 |
| 20260502053147 | 45 | 97 | 0.0 | 0.0 | 0.00 | 0.00 | 0.00 | 88 | 1025.8 |
| 20260502053102 | 44 | 97 | 0.0 | 0.0 | 0.00 | 0.00 | 0.00 | 88 | 1025.9 |
| 20260502053021 | 45 | 97 | 0.0 | 0.0 | 0.00 | 0.00 | 0.00 | 88 | 1025.8 |
| 20260502052922 | 45 | 97 | 0.0 | 0.0 | 0.00 | 0.00 | 0.00 | 88 | 1025.8 |
| 20260502052826 | 45 | 97 | 0.0 | 0.0 | 0.00 | 0.00 | 0.00 | 88 | 1025.8 |
| 20260502052720 | 44 | 97 | 0.0 | 0.0 | 0.00 | 0.00 | 0.00 | 88 | 1025.8 |
| 20260502052621 | 44 | 97 | 0.0 | 0.0 | 0.00 | 0.00 | 0.00 | 89 | 1025.8 |
| 20260502052325 | 44 | 97 | 0.0 | 0.0 | 0.00 | 0.00 | 0.00 | 89 | 1025.8 |
| 20260502052209 | 44 | 97 | 0.0 | 1.0 | 0.00 | 0.00 | 0.00 | 89 | 1025.8 |
| 20260502052112 | 44 | 97 | 0.0 | 1.0 | 0.00 | 0.00 | 0.00 | 89 | 1025.8 |
| 20260502052014 | 44 | 97 | 0.0 | 1.0 | 0.00 | 0.00 | 0.00 | 89 | 1025.8 |
| 20260502051908 | 43 | 97 | 0.0 | 1.0 | 0.00 | 0.00 | 0.00 | 88 | 1025.8 |
| 20260502051812 | 43 | 97 | 0.0 | 1.0 | 0.00 | 0.00 | 0.00 | 89 | 1025.8 |
| 20260502051715 | 43 | 97 | 0.0 | 2.0 | 0.00 | 0.00 | 0.00 | 89 | 1025.8 |
| 20260502051645 | 43 | 97 | 0.0 | 2.0 | 0.00 | 0.00 | 0.00 | 89 | 1025.8 |
| 20260502051607 | 43 | 97 | 0.0 | 2.0 | 0.00 | 0.00 | 0.00 | 89 | 1025.8 |
| 20260502051451 | 43 | 97 | 1.0 | 2.0 | 0.00 | 0.00 | 0.00 | 89 | 1025.8 |
| 20260502051354 | 43 | 97 | 1.0 | 2.0 | 0.00 | 0.00 | 0.00 | 89 | 1025.8 |
| 20260502051257 | 43 | 97 | 0.0 | 2.0 | 0.00 | 0.00 | 0.00 | 89 | 1025.8 |
| 20260502051150 | 43 | 97 | 0.0 | 3.0 | 0.00 | 0.00 | 0.00 | 89 | 1025.8 |
| 20260502051051 | 43 | 97 | 1.0 | 3.0 | 0.00 | 0.00 | 0.00 | 89 | 1025.8 |
| 20260502050931 | 43 | 97 | 1.0 | 3.0 | 0.00 | 0.00 | 0.00 | 89 | 1025.7 |
| 20260502050838 | 43 | 97 | 1.0 | 3.0 | 0.00 | 0.00 | 0.00 | 89 | 1025.8 |
| 20260502050711 | 43 | 97 | 1.0 | 3.0 | 0.00 | 0.00 | 0.00 | 89 | 1025.7 |
| 20260502050615 | 42 | 97 | 2.0 | 3.0 | 0.00 | 0.00 | 0.00 | 89 | 1025.7 |
| 20260502050516 | 42 | 97 | 2.0 | 3.0 | 0.00 | 0.00 | 0.00 | 89 | 1025.7 |
| 20260502050350 | 42 | 97 | 2.0 | 3.0 | 0.00 | 0.00 | 0.00 | 90 | 1025.7 |
| 20260502050252 | 42 | 97 | 2.0 | 3.0 | 0.00 | 0.00 | 0.00 | 90 | 1025.7 |
| 20260502050152 | 42 | 97 | 2.0 | 2.0 | 0.00 | 0.00 | 0.00 | 91 | 1025.8 |
| 20260502050117 | 42 | 97 | 1.0 | 2.0 | 0.00 | 0.00 | 0.00 | 91 | 1025.9 |
| 20260502050045 | 42 | 97 | 2.0 | 2.0 | 0.00 | 0.00 | 0.00 | 91 | 1025.7 |
| 20260502045929 | 42 | 97 | 1.0 | 2.0 | 0.00 | 0.00 | 0.00 | 91 | 1025.7 |
| 20260502045824 | 42 | 97 | 1.0 | 2.0 | 0.00 | 0.00 | 0.00 | 91 | 1025.7 |
| 20260502045728 | 42 | 97 | 1.0 | 2.0 | 0.00 | 0.00 | 0.00 | 91 | 1025.7 |
| 20260502045611 | 42 | 97 | 1.0 | 2.0 | 0.00 | 0.00 | 0.00 | 91 | 1025.7 |
| 20260502045510 | 41 | 97 | 0.0 | 0.0 | 0.00 | 0.00 | 0.00 | 91 | 1025.7 |
| 20260502045409 | 41 | 97 | 0.0 | 0.0 | 0.00 | 0.00 | 0.00 | 91 | 1025.7 |
| 20260502045311 | 41 | 97 | 0.0 | 0.0 | 0.00 | 0.00 | 0.00 | 91 | 1025.7 |
| 20260502045212 | 41 | 97 | 0.0 | 0.0 | 0.00 | 0.00 | 0.00 | 91 | 1025.7 |
| 20260502045140 | 40 | 97 | 0.0 | 0.0 | 0.00 | 0.00 | 0.00 | 90 | 1025.8 |
| 20260502045107 | 41 | 97 | 0.0 | 0.0 | 0.00 | 0.00 | 0.00 | 90 | 1025.7 |
| 20260502044839 | 41 | 97 | 0.0 | 0.0 | 0.00 | 0.00 | 0.00 | 90 | 1025.7 |
| 20260502044744 | 41 | 97 | 0.0 | 0.0 | 0.00 | 0.00 | 0.00 | 90 | 1025.7 |
| 20260502044639 | 41 | 97 | 0.0 | 0.0 | 0.00 | 0.00 | 0.00 | 90 | 1025.7 |
| 20260502044518 | 41 | 97 | 0.0 | 0.0 | 0.00 | 0.00 | 0.00 | 90 | 1025.7 |
| 20260502044422 | 41 | 97 | 0.0 | 0.0 | 0.00 | 0.00 | 0.00 | 90 | 1025.7 |
| 20260502044255 | 40 | 97 | 0.0 | 0.0 | 0.00 | 0.00 | 0.00 | 90 | 1025.7 |
| 20260502044152 | 40 | 97 | 0.0 | 0.0 | 0.00 | 0.00 | 0.00 | 90 | 1025.7 |
| 20260502044052 | 40 | 97 | 0.0 | 0.0 | 0.00 | 0.00 | 0.00 | 90 | 1025.7 |
| 20260502044014 | 40 | 97 | 0.0 | 0.0 | 0.00 | 0.00 | 0.00 | 90 | 1025.8 |
| 20260502043930 | 40 | 97 | 0.0 | 0.0 | 0.00 | 0.00 | 0.00 | 90 | 1025.6 |
| 20260502043834 | 40 | 97 | 0.0 | 0.0 | 0.00 | 0.00 | 0.00 | 90 | 1025.6 |
| 20260502043737 | 40 | 97 | 0.0 | 0.0 | 0.00 | 0.00 | 0.00 | 90 | 1025.6 |
| 20260502043630 | 40 | 97 | 0.0 | 0.0 | 0.00 | 0.00 | 0.00 | 90 | 1025.6 |
| 20260502043531 | 40 | 97 | 0.0 | 0.0 | 0.00 | 0.00 | 0.00 | 90 | 1025.6 |
| 20260502043434 | 40 | 97 | 0.0 | 0.0 | 0.00 | 0.00 | 0.00 | 90 | 1025.6 |
| 20260502043319 | 40 | 97 | 0.0 | 0.0 | 0.00 | 0.00 | 0.00 | 89 | 1025.6 |
| 20260502043210 | 40 | 97 | 0.0 | 0.0 | 0.00 | 0.00 | 0.00 | 89 | 1025.6 |
| 20260502043112 | 40 | 97 | 0.0 | 0.0 | 0.00 | 0.00 | 0.00 | 89 | 1025.6 |
| 20260502043013 | 40 | 97 | 0.0 | 0.0 | 0.00 | 0.00 | 0.00 | 90 | 1025.6 |
| 20260502042906 | 40 | 97 | 0.0 | 0.0 | 0.00 | 0.00 | 0.00 | 89 | 1025.6 |
| 20260502042809 | 40 | 97 | 0.0 | 0.0 | 0.00 | 0.00 | 0.00 | 89 | 1025.6 |
| 20260502042652 | 40 | 97 | 0.0 | 0.0 | 0.00 | 0.00 | 0.00 | 89 | 1025.6 |
| 20260502042559 | 40 | 97 | 0.0 | 0.0 | 0.00 | 0.00 | 0.00 | 89 | 1025.6 |
| 20260502042536 | 40 | 97 | 0.0 | 0.0 | 0.00 | 0.00 | 0.00 | 89 | 1025.7 |
| 20260502042450 | 40 | 97 | 0.0 | 0.0 | 0.00 | 0.00 | 0.00 | 89 | 1025.6 |
| 20260502042353 | 40 | 97 | 0.0 | 0.0 | 0.00 | 0.00 | 0.00 | 89 | 1025.6 |
| 20260502042257 | 40 | 97 | 0.0 | 0.0 | 0.00 | 0.00 | 0.00 | 89 | 1025.6 |
| 20260502042150 | 40 | 97 | 0.0 | 0.0 | 0.00 | 0.00 | 0.00 | 89 | 1025.7 |
| 20260502042050 | 40 | 97 | 0.0 | 0.0 | 0.00 | 0.00 | 0.00 | 89 | 1025.6 |
| 20260502041936 | 40 | 97 | 0.0 | 0.0 | 0.00 | 0.00 | 0.00 | 90 | 1025.6 |
| 20260502041830 | 40 | 97 | 0.0 | 0.0 | 0.00 | 0.00 | 0.00 | 90 | 1025.6 |
| 20260502041734 | 40 | 97 | 0.0 | 0.0 | 0.00 | 0.00 | 0.00 | 90 | 1025.6 |
| 20260502041515 | 40 | 97 | 0.0 | 0.0 | 0.00 | 0.00 | 0.00 | 90 | 1025.7 |
| 20260502041435 | 40 | 97 | 0.0 | 0.0 | 0.00 | 0.00 | 0.00 | 91 | 1025.6 |
| 20260502041317 | 40 | 97 | 0.0 | 0.0 | 0.00 | 0.00 | 0.00 | 91 | 1025.6 |
| 20260502041158 | 40 | 97 | 0.0 | 0.0 | 0.00 | 0.00 | 0.00 | 91 | 1025.6 |
| 20260502041040 | 40 | 97 | 0.0 | 0.0 | 0.00 | 0.00 | 0.00 | 91 | 1025.6 |
| 20260502041014 | 40 | 97 | 0.0 | 0.0 | 0.00 | 0.00 | 0.00 | 91 | 1025.7 |
| 20260502040934 | 40 | 97 | 0.0 | 0.0 | 0.00 | 0.00 | 0.00 | 91 | 1025.6 |
| 20260502040838 | 40 | 97 | 0.0 | 0.0 | 0.00 | 0.00 | 0.00 | 91 | 1025.6 |
| 20260502040740 | 40 | 97 | 0.0 | 0.0 | 0.00 | 0.00 | 0.00 | 91 | 1025.6 |
| 20260502040634 | 40 | 97 | 0.0 | 0.0 | 0.00 | 0.00 | 0.00 | 91 | 1025.6 |
| 20260502040536 | 40 | 97 | 0.0 | 0.0 | 0.00 | 0.00 | 0.00 | 91 | 1025.5 |
| 20260502040439 | 40 | 97 | 0.0 | 0.0 | 0.00 | 0.00 | 0.00 | 91 | 1025.5 |
| 20260502040346 | 40 | 97 | 0.0 | 0.0 | 0.00 | 0.00 | 0.00 | 91 | 1025.6 |
| 20260502040238 | 40 | 97 | 0.0 | 0.0 | 0.00 | 0.00 | 0.00 | 91 | 1025.5 |
| 20260502040141 | 40 | 97 | 0.0 | 2.0 | 0.00 | 0.00 | 0.00 | 91 | 1025.5 |
| 20260502040043 | 40 | 97 | 0.0 | 3.0 | 0.00 | 0.00 | 0.00 | 91 | 1025.5 |
| 20260502040019 | 39 | 97 | 0.0 | 3.0 | 0.00 | 0.00 | 0.00 | 91 | 1025.6 |
| 20260502035937 | 40 | 97 | 0.0 | 3.0 | 0.00 | 0.00 | 0.00 | 91 | 1025.6 |
| 20260502035818 | 40 | 97 | 0.0 | 3.0 | 0.00 | 0.00 | 0.00 | 91 | 1025.5 |
| 20260502035704 | 40 | 97 | 0.0 | 3.0 | 0.00 | 0.00 | 0.00 | 91 | 1025.5 |
| 20260502035608 | 40 | 97 | 0.0 | 3.0 | 0.00 | 0.00 | 0.00 | 91 | 1025.5 |
| 20260502035540 | 39 | 97 | 0.0 | 3.0 | 0.00 | 0.00 | 0.00 | 91 | 1025.6 |
| 20260502035459 | 39 | 97 | 1.0 | 3.0 | 0.00 | 0.00 | 0.00 | 91 | 1025.5 |
| 20260502035342 | 39 | 97 | 2.0 | 3.0 | 0.00 | 0.00 | 0.00 | 90 | 1025.5 |
| 20260502035245 | 39 | 97 | 1.0 | 3.0 | 0.00 | 0.00 | 0.00 | 90 | 1025.5 |
| 20260502035139 | 39 | 97 | 0.0 | 0.0 | 0.00 | 0.00 | 0.00 | 89 | 1025.6 |
| 20260502035039 | 39 | 97 | 0.0 | 0.0 | 0.00 | 0.00 | 0.00 | 89 | 1025.5 |
| 20260502034947 | 39 | 97 | 0.0 | 0.0 | 0.00 | 0.00 | 0.00 | 89 | 1025.6 |
| 20260502034850 | 39 | 97 | 0.0 | 0.0 | 0.00 | 0.00 | 0.00 | 89 | 1025.5 |
| 20260502034744 | 39 | 97 | 0.0 | 0.0 | 0.00 | 0.00 | 0.00 | 89 | 1025.5 |
| 20260502034648 | 39 | 97 | 0.0 | 0.0 | 0.00 | 0.00 | 0.00 | 89 | 1025.5 |
| 20260502034550 | 39 | 97 | 0.0 | 0.0 | 0.00 | 0.00 | 0.00 | 89 | 1025.5 |
| 20260502034525 | 39 | 97 | 0.0 | 0.0 | 0.00 | 0.00 | 0.00 | 89 | 1025.6 |
| 20260502034444 | 39 | 97 | 0.0 | 0.0 | 0.00 | 0.00 | 0.00 | 89 | 1025.5 |
| 20260502034331 | 39 | 97 | 0.0 | 0.0 | 0.00 | 0.00 | 0.00 | 89 | 1025.6 |
| 20260502034224 | 39 | 97 | 0.0 | 0.0 | 0.00 | 0.00 | 0.00 | 89 | 1025.5 |
| 20260502034125 | 39 | 97 | 0.0 | 0.0 | 0.00 | 0.00 | 0.00 | 89 | 1025.5 |
| 20260502034005 | 39 | 97 | 0.0 | 0.0 | 0.00 | 0.00 | 0.00 | 88 | 1025.5 |
| 20260502033858 | 39 | 97 | 0.0 | 0.0 | 0.00 | 0.00 | 0.00 | 88 | 1025.5 |
| 20260502033802 | 39 | 97 | 0.0 | 0.0 | 0.00 | 0.00 | 0.00 | 88 | 1025.4 |
| 20260502033647 | 39 | 97 | 0.0 | 0.0 | 0.00 | 0.00 | 0.00 | 88 | 1025.5 |
| 20260502033548 | 39 | 97 | 0.0 | 0.0 | 0.00 | 0.00 | 0.00 | 88 | 1025.4 |
| 20260502033518 | 39 | 97 | 0.0 | 0.0 | 0.00 | 0.00 | 0.00 | 88 | 1025.5 |
| 20260502033443 | 39 | 97 | 0.0 | 0.0 | 0.00 | 0.00 | 0.00 | 87 | 1025.4 |
| 20260502033345 | 39 | 97 | 0.0 | 0.0 | 0.00 | 0.00 | 0.00 | 87 | 1025.4 |
| 20260502033248 | 39 | 97 | 0.0 | 0.0 | 0.00 | 0.00 | 0.00 | 87 | 1025.4 |
| 20260502033143 | 39 | 97 | 0.0 | 0.0 | 0.00 | 0.00 | 0.00 | 87 | 1025.4 |
| 20260502033027 | 39 | 97 | 0.0 | 0.0 | 0.00 | 0.00 | 0.00 | 87 | 1025.5 |
| 20260502032910 | 39 | 97 | 0.0 | 0.0 | 0.00 | 0.00 | 0.00 | 87 | 1025.5 |
| 20260502032804 | 39 | 97 | 0.0 | 0.0 | 0.00 | 0.00 | 0.00 | 87 | 1025.5 |
| 20260502032646 | 39 | 97 | 0.0 | 0.0 | 0.00 | 0.00 | 0.00 | 86 | 1025.5 |
| 20260502032409 | 39 | 97 | 0.0 | 0.0 | 0.00 | 0.00 | 0.00 | 86 | 1025.5 |
| 20260502032310 | 39 | 97 | 0.0 | 0.0 | 0.00 | 0.00 | 0.00 | 86 | 1025.5 |
| 20260502032216 | 39 | 97 | 0.0 | 0.0 | 0.00 | 0.00 | 0.00 | 86 | 1025.5 |
| 20260502032054 | 39 | 97 | 0.0 | 0.0 | 0.00 | 0.00 | 0.00 | 86 | 1025.5 |
| 20260502032031 | 39 | 97 | 0.0 | 0.0 | 0.00 | 0.00 | 0.00 | 86 | 1025.6 |
| 20260502031949 | 39 | 97 | 0.0 | 0.0 | 0.00 | 0.00 | 0.00 | 86 | 1025.5 |
| 20260502031851 | 39 | 97 | 0.0 | 0.0 | 0.00 | 0.00 | 0.00 | 86 | 1025.5 |
| 20260502031755 | 39 | 97 | 0.0 | 0.0 | 0.00 | 0.00 | 0.00 | 86 | 1025.5 |
| 20260502031650 | 39 | 97 | 0.0 | 0.0 | 0.00 | 0.00 | 0.00 | 86 | 1025.5 |
| 20260502031550 | 39 | 97 | 0.0 | 0.0 | 0.00 | 0.00 | 0.00 | 86 | 1025.5 |
| 20260502031457 | 39 | 97 | 0.0 | 0.0 | 0.00 | 0.00 | 0.00 | 86 | 1025.5 |
| 20260502031352 | 40 | 97 | 0.0 | 0.0 | 0.00 | 0.00 | 0.00 | 86 | 1025.5 |
| 20260502031255 | 40 | 97 | 0.0 | 0.0 | 0.00 | 0.00 | 0.00 | 85 | 1025.5 |
| 20260502031138 | 40 | 97 | 0.0 | 0.0 | 0.00 | 0.00 | 0.00 | 85 | 1025.5 |
| 20260502031018 | 40 | 97 | 0.0 | 0.0 | 0.00 | 0.00 | 0.00 | 86 | 1025.5 |
| 20260502030620 | 40 | 97 | 0.0 | 0.0 | 0.00 | 0.00 | 0.00 | 86 | 1025.5 |
| 20260502030554 | 39 | 97 | 0.0 | 0.0 | 0.00 | 0.00 | 0.00 | 86 | 1025.6 |
| 20260502030451 | 40 | 97 | 0.0 | 0.0 | 0.00 | 0.00 | 0.00 | 86 | 1025.5 |
| 20260502030331 | 40 | 97 | 0.0 | 0.0 | 0.00 | 0.00 | 0.00 | 86 | 1025.5 |
| 20260502030230 | 40 | 97 | 0.0 | 0.0 | 0.00 | 0.00 | 0.00 | 86 | 1025.6 |
| 20260502030138 | 39 | 97 | 0.0 | 0.0 | 0.00 | 0.00 | 0.00 | 86 | 1025.7 |
| 20260502030100 | 40 | 97 | 0.0 | 0.0 | 0.00 | 0.00 | 0.00 | 86 | 1025.6 |
| 20260502030004 | 40 | 97 | 0.0 | 0.0 | 0.00 | 0.00 | 0.00 | 86 | 1025.6 |
| 20260502025907 | 40 | 97 | 0.0 | 0.0 | 0.00 | 0.00 | 0.00 | 86 | 1025.6 |
| 20260502025805 | 40 | 97 | 0.0 | 0.0 | 0.00 | 0.00 | 0.00 | 86 | 1025.6 |
| 20260502025709 | 40 | 97 | 0.0 | 0.0 | 0.00 | 0.00 | 0.00 | 86 | 1025.6 |
| 20260502025609 | 40 | 97 | 0.0 | 0.0 | 0.00 | 0.00 | 0.00 | 86 | 1025.6 |
| 20260502025509 | 40 | 97 | 0.0 | 0.0 | 0.00 | 0.00 | 0.00 | 86 | 1025.6 |
| 20260502025404 | 40 | 97 | 0.0 | 0.0 | 0.00 | 0.00 | 0.00 | 86 | 1025.6 |
| 20260502025308 | 40 | 97 | 0.0 | 0.0 | 0.00 | 0.00 | 0.00 | 86 | 1025.6 |
| 20260502025214 | 40 | 97 | 0.0 | 0.0 | 0.00 | 0.00 | 0.00 | 86 | 1025.6 |
| 20260502025056 | 40 | 97 | 0.0 | 0.0 | 0.00 | 0.00 | 0.00 | 86 | 1025.6 |
| 20260502025032 | 40 | 97 | 0.0 | 0.0 | 0.00 | 0.00 | 0.00 | 86 | 1025.7 |
| 20260502024928 | 40 | 97 | 0.0 | 0.0 | 0.00 | 0.00 | 0.00 | 86 | 1025.6 |
| 20260502024830 | 40 | 97 | 0.0 | 0.0 | 0.00 | 0.00 | 0.00 | 86 | 1025.6 |
| 20260502024723 | 40 | 97 | 0.0 | 0.0 | 0.00 | 0.00 | 0.00 | 86 | 1025.6 |
| 20260502024607 | 40 | 97 | 0.0 | 0.0 | 0.00 | 0.00 | 0.00 | 86 | 1025.6 |
| 20260502024512 | 40 | 97 | 0.0 | 0.0 | 0.00 | 0.00 | 0.00 | 85 | 1025.6 |
| 20260502024344 | 40 | 97 | 0.0 | 0.0 | 0.00 | 0.00 | 0.00 | 85 | 1025.6 |
| 20260502024226 | 40 | 97 | 0.0 | 0.0 | 0.00 | 0.00 | 0.00 | 85 | 1025.6 |
| 20260502024129 | 40 | 97 | 0.0 | 0.0 | 0.00 | 0.00 | 0.00 | 85 | 1025.6 |
| 20260502024030 | 40 | 97 | 0.0 | 0.0 | 0.00 | 0.00 | 0.00 | 85 | 1025.6 |
| 20260502023902 | 40 | 97 | 0.0 | 0.0 | 0.00 | 0.00 | 0.00 | 85 | 1025.6 |
| 20260502023805 | 40 | 97 | 0.0 | 0.0 | 0.00 | 0.00 | 0.00 | 85 | 1025.6 |
| 20260502023651 | 40 | 97 | 0.0 | 0.0 | 0.00 | 0.00 | 0.00 | 84 | 1025.6 |
| 20260502023620 | 40 | 97 | 0.0 | 0.0 | 0.00 | 0.00 | 0.00 | 84 | 1025.7 |
| 20260502023541 | 40 | 97 | 0.0 | 0.0 | 0.00 | 0.00 | 0.00 | 84 | 1025.5 |
| 20260502023443 | 41 | 97 | 0.0 | 0.0 | 0.00 | 0.00 | 0.00 | 84 | 1025.5 |
| 20260502023324 | 41 | 97 | 0.0 | 0.0 | 0.00 | 0.00 | 0.00 | 84 | 1025.6 |
| 20260502023153 | 41 | 97 | 0.0 | 0.0 | 0.00 | 0.00 | 0.00 | 84 | 1025.6 |
| 20260502023054 | 41 | 97 | 0.0 | 0.0 | 0.00 | 0.00 | 0.00 | 83 | 1025.6 |
| 20260502023000 | 41 | 97 | 0.0 | 0.0 | 0.00 | 0.00 | 0.00 | 84 | 1025.6 |
| 20260502022904 | 41 | 97 | 0.0 | 0.0 | 0.00 | 0.00 | 0.00 | 84 | 1025.6 |
| 20260502022735 | 41 | 97 | 0.0 | 0.0 | 0.00 | 0.00 | 0.00 | 84 | 1025.6 |
| 20260502022640 | 41 | 97 | 0.0 | 0.0 | 0.00 | 0.00 | 0.00 | 84 | 1025.6 |
| 20260502022541 | 41 | 97 | 0.0 | 0.0 | 0.00 | 0.00 | 0.00 | 84 | 1025.6 |
| 20260502022517 | 40 | 97 | 0.0 | 0.0 | 0.00 | 0.00 | 0.00 | 84 | 1025.7 |
| 20260502022436 | 41 | 97 | 0.0 | 0.0 | 0.00 | 0.00 | 0.00 | 84 | 1025.6 |
| 20260502022338 | 41 | 97 | 0.0 | 0.0 | 0.00 | 0.00 | 0.00 | 84 | 1025.6 |
| 20260502022244 | 41 | 97 | 0.0 | 0.0 | 0.00 | 0.00 | 0.00 | 84 | 1025.6 |
| 20260502022140 | 41 | 97 | 0.0 | 0.0 | 0.00 | 0.00 | 0.00 | 84 | 1025.6 |
| 20260502022040 | 41 | 97 | 0.0 | 0.0 | 0.00 | 0.00 | 0.00 | 84 | 1025.6 |
| 20260502021942 | 41 | 97 | 0.0 | 0.0 | 0.00 | 0.00 | 0.00 | 84 | 1025.6 |
| 20260502021846 | 41 | 97 | 0.0 | 0.0 | 0.00 | 0.00 | 0.00 | 84 | 1025.6 |
| 20260502021657 | 41 | 97 | 0.0 | 0.0 | 0.00 | 0.00 | 0.00 | 84 | 1025.6 |
| 20260502021601 | 41 | 97 | 0.0 | 0.0 | 0.00 | 0.00 | 0.00 | 84 | 1025.6 |
| 20260502021504 | 41 | 97 | 0.0 | 0.0 | 0.00 | 0.00 | 0.00 | 84 | 1025.6 |
| 20260502021337 | 41 | 97 | 0.0 | 0.0 | 0.00 | 0.00 | 0.00 | 84 | 1025.6 |
| 20260502021238 | 41 | 97 | 0.0 | 0.0 | 0.00 | 0.00 | 0.00 | 84 | 1025.6 |
| 20260502021122 | 41 | 97 | 0.0 | 0.0 | 0.00 | 0.00 | 0.00 | 84 | 1025.6 |
| 20260502021048 | 41 | 97 | 0.0 | 0.0 | 0.00 | 0.00 | 0.00 | 84 | 1025.8 |
| 20260502021012 | 41 | 97 | 0.0 | 0.0 | 0.00 | 0.00 | 0.00 | 84 | 1025.6 |
| 20260502020916 | 42 | 97 | 0.0 | 0.0 | 0.00 | 0.00 | 0.00 | 84 | 1025.6 |
| 20260502020823 | 42 | 97 | 0.0 | 0.0 | 0.00 | 0.00 | 0.00 | 84 | 1025.6 |
| 20260502020727 | 42 | 97 | 0.0 | 0.0 | 0.00 | 0.00 | 0.00 | 84 | 1025.6 |
| 20260502020618 | 42 | 97 | 0.0 | 0.0 | 0.00 | 0.00 | 0.00 | 84 | 1025.7 |
| 20260502020501 | 42 | 97 | 0.0 | 0.0 | 0.00 | 0.00 | 0.00 | 84 | 1025.6 |
| 20260502020404 | 42 | 97 | 0.0 | 0.0 | 0.00 | 0.00 | 0.00 | 84 | 1025.7 |
| 20260502020258 | 42 | 97 | 0.0 | 0.0 | 0.00 | 0.00 | 0.00 | 84 | 1025.6 |
| 20260502020144 | 42 | 97 | 0.0 | 0.0 | 0.00 | 0.00 | 0.00 | 84 | 1025.6 |
| 20260502020043 | 42 | 97 | 0.0 | 0.0 | 0.00 | 0.00 | 0.00 | 84 | 1025.6 |
| 20260502020010 | 41 | 97 | 0.0 | 0.0 | 0.00 | 0.00 | 0.00 | 84 | 1025.8 |
| 20260502015936 | 42 | 97 | 0.0 | 0.0 | 0.00 | 0.00 | 0.00 | 84 | 1025.7 |
| 20260502015837 | 42 | 97 | 0.0 | 0.0 | 0.00 | 0.00 | 0.00 | 84 | 1025.7 |
| 20260502015740 | 42 | 97 | 0.0 | 0.0 | 0.00 | 0.00 | 0.00 | 84 | 1025.7 |
| 20260502015644 | 42 | 97 | 0.0 | 0.0 | 0.00 | 0.00 | 0.00 | 85 | 1025.7 |
| 20260502015621 | 41 | 97 | 0.0 | 0.0 | 0.00 | 0.00 | 0.00 | 85 | 1025.8 |
| 20260502015537 | 42 | 97 | 0.0 | 0.0 | 0.00 | 0.00 | 0.00 | 84 | 1025.7 |
| 20260502015444 | 42 | 97 | 0.0 | 0.0 | 0.00 | 0.00 | 0.00 | 84 | 1025.7 |
| 20260502015326 | 42 | 97 | 0.0 | 0.0 | 0.00 | 0.00 | 0.00 | 84 | 1025.7 |
| 20260502015220 | 42 | 97 | 0.0 | 0.0 | 0.00 | 0.00 | 0.00 | 84 | 1025.7 |
| 20260502015120 | 42 | 97 | 0.0 | 0.0 | 0.00 | 0.00 | 0.00 | 84 | 1025.7 |
| 20260502015002 | 42 | 97 | 0.0 | 0.0 | 0.00 | 0.00 | 0.00 | 84 | 1025.7 |
| 20260502014823 | 42 | 97 | 0.0 | 0.0 | 0.00 | 0.00 | 0.00 | 84 | 1025.8 |
| 20260502014720 | 42 | 97 | 0.0 | 0.0 | 0.00 | 0.00 | 0.00 | 84 | 1025.8 |
| 20260502014620 | 42 | 97 | 0.0 | 0.0 | 0.00 | 0.00 | 0.00 | 85 | 1025.7 |
| 20260502014503 | 42 | 97 | 0.0 | 0.0 | 0.00 | 0.00 | 0.00 | 85 | 1025.7 |
| 20260502014356 | 42 | 97 | 0.0 | 0.0 | 0.00 | 0.00 | 0.00 | 85 | 1025.7 |
| 20260502014259 | 42 | 97 | 0.0 | 0.0 | 0.00 | 0.00 | 0.00 | 85 | 1025.7 |
| 20260502014200 | 42 | 97 | 0.0 | 0.0 | 0.00 | 0.00 | 0.00 | 85 | 1025.7 |
| 20260502014101 | 42 | 97 | 0.0 | 0.0 | 0.00 | 0.00 | 0.00 | 85 | 1025.8 |
| 20260502014017 | 41 | 97 | 0.0 | 0.0 | 0.00 | 0.00 | 0.00 | 85 | 1025.9 |
| 20260502013914 | 42 | 97 | 0.0 | 0.0 | 0.00 | 0.00 | 0.00 | 85 | 1025.7 |
| 20260502013817 | 42 | 97 | 0.0 | 0.0 | 0.00 | 0.00 | 0.00 | 86 | 1025.7 |
| 20260502013720 | 42 | 97 | 0.0 | 0.0 | 0.00 | 0.00 | 0.00 | 85 | 1025.7 |
| 20260502013625 | 41 | 97 | 0.0 | 0.0 | 0.00 | 0.00 | 0.00 | 85 | 1025.8 |
| 20260502013529 | 42 | 97 | 0.0 | 0.0 | 0.00 | 0.00 | 0.00 | 85 | 1025.7 |
| 20260502013431 | 42 | 97 | 0.0 | 0.0 | 0.00 | 0.00 | 0.00 | 85 | 1025.7 |
| 20260502013335 | 42 | 97 | 0.0 | 0.0 | 0.00 | 0.00 | 0.00 | 85 | 1025.7 |
| 20260502013240 | 42 | 97 | 0.0 | 0.0 | 0.00 | 0.00 | 0.00 | 84 | 1025.7 |
| 20260502013134 | 42 | 97 | 0.0 | 0.0 | 0.00 | 0.00 | 0.00 | 84 | 1025.7 |
| 20260502013036 | 42 | 97 | 0.0 | 0.0 | 0.00 | 0.00 | 0.00 | 84 | 1025.7 |
| 20260502012940 | 42 | 97 | 0.0 | 0.0 | 0.00 | 0.00 | 0.00 | 84 | 1025.7 |
| 20260502012834 | 42 | 97 | 0.0 | 0.0 | 0.00 | 0.00 | 0.00 | 84 | 1025.7 |
| 20260502012738 | 42 | 97 | 0.0 | 0.0 | 0.00 | 0.00 | 0.00 | 84 | 1025.7 |
| 20260502012514 | 42 | 97 | 0.0 | 0.0 | 0.00 | 0.00 | 0.00 | 84 | 1025.8 |
| 20260502012406 | 42 | 97 | 0.0 | 0.0 | 0.00 | 0.00 | 0.00 | 84 | 1025.8 |
| 20260502012227 | 42 | 97 | 0.0 | 0.0 | 0.00 | 0.00 | 0.00 | 84 | 1025.8 |
| 20260502012122 | 42 | 97 | 0.0 | 0.0 | 0.00 | 0.00 | 0.00 | 84 | 1025.8 |
| 20260502012024 | 42 | 97 | 0.0 | 0.0 | 0.00 | 0.00 | 0.00 | 83 | 1025.7 |
| 20260502011906 | 42 | 97 | 0.0 | 0.0 | 0.00 | 0.00 | 0.00 | 83 | 1025.7 |
| 20260502011805 | 42 | 97 | 0.0 | 0.0 | 0.00 | 0.00 | 0.00 | 83 | 1025.8 |
| 20260502011708 | 42 | 97 | 0.0 | 0.0 | 0.00 | 0.00 | 0.00 | 83 | 1025.8 |
| 20260502011611 | 42 | 97 | 0.0 | 0.0 | 0.00 | 0.00 | 0.00 | 82 | 1025.8 |
| 20260502011512 | 42 | 97 | 0.0 | 0.0 | 0.00 | 0.00 | 0.00 | 82 | 1025.8 |
| 20260502011405 | 42 | 97 | 0.0 | 0.0 | 0.00 | 0.00 | 0.00 | 83 | 1025.8 |
| 20260502011308 | 42 | 97 | 0.0 | 0.0 | 0.00 | 0.00 | 0.00 | 83 | 1025.8 |
| 20260502011206 | 42 | 97 | 0.0 | 0.0 | 0.00 | 0.00 | 0.00 | 83 | 1025.8 |
| 20260502011113 | 42 | 97 | 0.0 | 0.0 | 0.00 | 0.00 | 0.00 | 83 | 1025.8 |
| 20260502011045 | 42 | 97 | 0.0 | 0.0 | 0.00 | 0.00 | 0.00 | 83 | 1025.9 |
| 20260502011004 | 42 | 97 | 0.0 | 0.0 | 0.00 | 0.00 | 0.00 | 83 | 1025.8 |
| 20260502010908 | 42 | 97 | 0.0 | 0.0 | 0.00 | 0.00 | 0.00 | 83 | 1025.8 |
| 20260502010811 | 42 | 97 | 0.0 | 0.0 | 0.00 | 0.00 | 0.00 | 83 | 1025.8 |
| 20260502010643 | 42 | 97 | 0.0 | 0.0 | 0.00 | 0.00 | 0.00 | 83 | 1025.8 |
| 20260502010542 | 42 | 97 | 0.0 | 0.0 | 0.00 | 0.00 | 0.00 | 83 | 1025.8 |
| 20260502010446 | 42 | 97 | 0.0 | 0.0 | 0.00 | 0.00 | 0.00 | 83 | 1025.9 |
| 20260502010354 | 42 | 97 | 0.0 | 0.0 | 0.00 | 0.00 | 0.00 | 82 | 1025.8 |
| 20260502010248 | 42 | 97 | 0.0 | 0.0 | 0.00 | 0.00 | 0.00 | 82 | 1025.8 |
| 20260502010149 | 42 | 97 | 0.0 | 0.0 | 0.00 | 0.00 | 0.00 | 82 | 1025.9 |
| 20260502010051 | 42 | 97 | 0.0 | 0.0 | 0.00 | 0.00 | 0.00 | 82 | 1025.9 |
| 20260502005956 | 42 | 97 | 0.0 | 0.0 | 0.00 | 0.00 | 0.00 | 82 | 1025.9 |
| 20260502005848 | 42 | 97 | 0.0 | 0.0 | 0.00 | 0.00 | 0.00 | 82 | 1025.9 |
| 20260502005756 | 42 | 97 | 0.0 | 0.0 | 0.00 | 0.00 | 0.00 | 82 | 1026.0 |
| 20260502005659 | 43 | 97 | 0.0 | 0.0 | 0.00 | 0.00 | 0.00 | 82 | 1025.9 |
| 20260502005623 | 42 | 97 | 0.0 | 0.0 | 0.00 | 0.00 | 0.00 | 83 | 1026.1 |
| 20260502005551 | 43 | 97 | 0.0 | 0.0 | 0.00 | 0.00 | 0.00 | 83 | 1025.9 |
| 20260502005454 | 43 | 97 | 0.0 | 0.0 | 0.00 | 0.00 | 0.00 | 83 | 1025.9 |
| 20260502005358 | 43 | 97 | 0.0 | 0.0 | 0.00 | 0.00 | 0.00 | 83 | 1026.0 |
| 20260502005305 | 43 | 97 | 0.0 | 0.0 | 0.00 | 0.00 | 0.00 | 83 | 1025.9 |
| 20260502005152 | 43 | 97 | 0.0 | 0.0 | 0.00 | 0.00 | 0.00 | 83 | 1026.0 |
| 20260502005036 | 43 | 97 | 0.0 | 0.0 | 0.00 | 0.00 | 0.00 | 83 | 1025.9 |
| 20260502004938 | 43 | 97 | 0.0 | 0.0 | 0.00 | 0.00 | 0.00 | 83 | 1025.9 |
| 20260502004833 | 43 | 97 | 0.0 | 0.0 | 0.00 | 0.00 | 0.00 | 83 | 1025.9 |
| 20260502004734 | 43 | 97 | 0.0 | 0.0 | 0.00 | 0.00 | 0.00 | 83 | 1026.0 |
| 20260502004638 | 43 | 97 | 0.0 | 0.0 | 0.00 | 0.00 | 0.00 | 83 | 1026.0 |
| 20260502004540 | 43 | 97 | 0.0 | 0.0 | 0.00 | 0.00 | 0.00 | 83 | 1026.0 |
| 20260502004518 | 42 | 97 | 0.0 | 0.0 | 0.00 | 0.00 | 0.00 | 83 | 1026.1 |
| 20260502004438 | 43 | 97 | 0.0 | 0.0 | 0.00 | 0.00 | 0.00 | 83 | 1026.0 |
| 20260502004341 | 43 | 97 | 0.0 | 0.0 | 0.00 | 0.00 | 0.00 | 83 | 1026.0 |
| 20260502004223 | 43 | 97 | 0.0 | 0.0 | 0.00 | 0.00 | 0.00 | 82 | 1026.0 |
| 20260502004153 | 42 | 97 | 0.0 | 0.0 | 0.00 | 0.00 | 0.00 | 82 | 1026.1 |
| 20260502004119 | 43 | 97 | 0.0 | 0.0 | 0.00 | 0.00 | 0.00 | 82 | 1026.0 |
| 20260502004020 | 43 | 97 | 0.0 | 0.0 | 0.00 | 0.00 | 0.00 | 82 | 1026.0 |
| 20260502003923 | 43 | 97 | 0.0 | 0.0 | 0.00 | 0.00 | 0.00 | 82 | 1025.9 |
| 20260502003815 | 43 | 97 | 0.0 | 0.0 | 0.00 | 0.00 | 0.00 | 82 | 1026.0 |
| 20260502003722 | 43 | 97 | 0.0 | 0.0 | 0.00 | 0.00 | 0.00 | 81 | 1026.0 |
| 20260502003540 | 43 | 97 | 0.0 | 0.0 | 0.00 | 0.00 | 0.00 | 81 | 1026.0 |
| 20260502003305 | 43 | 97 | 0.0 | 0.0 | 0.00 | 0.00 | 0.00 | 80 | 1026.0 |
| 20260502003206 | 43 | 97 | 0.0 | 0.0 | 0.00 | 0.00 | 0.00 | 80 | 1026.0 |
| 20260502003108 | 43 | 97 | 0.0 | 0.0 | 0.00 | 0.00 | 0.00 | 80 | 1025.9 |
| 20260502003037 | 42 | 97 | 0.0 | 0.0 | 0.00 | 0.00 | 0.00 | 80 | 1026.2 |
| 20260502003001 | 43 | 97 | 0.0 | 0.0 | 0.00 | 0.00 | 0.00 | 80 | 1026.0 |
| 20260502002908 | 43 | 97 | 0.0 | 0.0 | 0.00 | 0.00 | 0.00 | 80 | 1026.0 |
| 20260502002811 | 43 | 97 | 0.0 | 0.0 | 0.00 | 0.00 | 0.00 | 80 | 1026.0 |
| 20260502002706 | 43 | 97 | 0.0 | 0.0 | 0.00 | 0.00 | 0.00 | 80 | 1026.0 |
| 20260502002546 | 43 | 97 | 0.0 | 0.0 | 0.00 | 0.00 | 0.00 | 80 | 1026.0 |
| 20260502002449 | 43 | 97 | 0.0 | 0.0 | 0.00 | 0.00 | 0.00 | 80 | 1026.0 |
| 20260502002352 | 43 | 97 | 0.0 | 0.0 | 0.00 | 0.00 | 0.00 | 80 | 1026.0 |
| 20260502002251 | 43 | 97 | 0.0 | 0.0 | 0.00 | 0.00 | 0.00 | 81 | 1026.0 |
| 20260502002134 | 43 | 97 | 0.0 | 0.0 | 0.00 | 0.00 | 0.00 | 81 | 1026.0 |
| 20260502002036 | 43 | 97 | 0.0 | 0.0 | 0.00 | 0.00 | 0.00 | 81 | 1026.0 |
| 20260502002003 | 43 | 97 | 0.0 | 0.0 | 0.00 | 0.00 | 0.00 | 81 | 1026.2 |
| 20260502001930 | 43 | 97 | 0.0 | 0.0 | 0.00 | 0.00 | 0.00 | 81 | 1026.0 |
| 20260502001832 | 43 | 97 | 0.0 | 0.0 | 0.00 | 0.00 | 0.00 | 81 | 1026.0 |
| 20260502001653 | 43 | 97 | 0.0 | 0.0 | 0.00 | 0.00 | 0.00 | 81 | 1026.0 |
| 20260502001532 | 43 | 97 | 0.0 | 0.0 | 0.00 | 0.00 | 0.00 | 82 | 1026.0 |
| 20260502001511 | 43 | 97 | 0.0 | 0.0 | 0.00 | 0.00 | 0.00 | 82 | 1026.2 |
| 20260502001430 | 43 | 97 | 0.0 | 0.0 | 0.00 | 0.00 | 0.00 | 82 | 1026.1 |
| 20260502001333 | 43 | 97 | 0.0 | 0.0 | 0.00 | 0.00 | 0.00 | 82 | 1026.0 |
| 20260502001236 | 43 | 97 | 0.0 | 0.0 | 0.00 | 0.00 | 0.00 | 82 | 1026.0 |
| 20260502001131 | 43 | 97 | 0.0 | 0.0 | 0.00 | 0.00 | 0.00 | 82 | 1026.0 |
| 20260502001031 | 44 | 97 | 0.0 | 0.0 | 0.00 | 0.00 | 0.00 | 82 | 1026.1 |
| 20260502000933 | 44 | 97 | 0.0 | 0.0 | 0.00 | 0.00 | 0.00 | 82 | 1026.1 |
| 20260502000841 | 44 | 97 | 0.0 | 0.0 | 0.00 | 0.00 | 0.00 | 82 | 1026.0 |
| 20260502000714 | 44 | 97 | 0.0 | 0.0 | 0.00 | 0.00 | 0.00 | 82 | 1026.1 |
| 20260502000618 | 44 | 97 | 0.0 | 0.0 | 0.00 | 0.00 | 0.00 | 81 | 1026.1 |
| 20260502000519 | 44 | 97 | 0.0 | 0.0 | 0.00 | 0.00 | 0.00 | 81 | 1026.1 |
| 20260502000412 | 44 | 97 | 0.0 | 0.0 | 0.00 | 0.00 | 0.00 | 81 | 1026.0 |
| 20260502000317 | 44 | 97 | 0.0 | 0.0 | 0.00 | 0.00 | 0.00 | 81 | 1026.1 |
| 20260502000049 | 44 | 97 | 0.0 | 0.0 | 0.00 | 0.00 | 0.00 | 80 | 1026.1 |
| 20260502000038 | 43 | 97 | 0.0 | 0.0 | 0.00 | 0.00 | 0.00 | 80 | 1026.2 |
| 20260501235942 | 44 | 97 | 0.0 | 0.0 | 0.00 | 0.00 | 0.00 | 79 | 1026.0 |
| 20260501235846 | 44 | 97 | 0.0 | 0.0 | 0.00 | 0.00 | 0.00 | 79 | 1026.1 |
| 20260501235749 | 44 | 97 | 0.0 | 0.0 | 0.00 | 0.00 | 0.00 | 78 | 1026.1 |
| 20260501235643 | 44 | 97 | 0.0 | 0.0 | 0.00 | 0.00 | 0.00 | 78 | 1026.1 |
| 20260501235544 | 44 | 97 | 0.0 | 0.0 | 0.00 | 0.00 | 0.00 | 77 | 1026.1 |
| 20260501235448 | 44 | 97 | 0.0 | 0.0 | 0.00 | 0.00 | 0.00 | 77 | 1026.1 |
| 20260501235354 | 44 | 97 | 0.0 | 0.0 | 0.00 | 0.00 | 0.00 | 77 | 1026.1 |
| 20260501235226 | 44 | 97 | 0.0 | 0.0 | 0.00 | 0.00 | 0.00 | 77 | 1026.2 |
| 20260501235104 | 44 | 97 | 0.0 | 0.0 | 0.00 | 0.00 | 0.00 | 77 | 1026.2 |
| 20260501234947 | 44 | 97 | 0.0 | 0.0 | 0.00 | 0.00 | 0.00 | 77 | 1026.2 |
| 20260501234819 | 44 | 97 | 0.0 | 0.0 | 0.00 | 0.00 | 0.00 | 77 | 1026.1 |
| 20260501234721 | 44 | 97 | 0.0 | 0.0 | 0.00 | 0.00 | 0.00 | 77 | 1026.1 |
| 20260501234543 | 45 | 97 | 0.0 | 0.0 | 0.00 | 0.00 | 0.00 | 77 | 1026.1 |
| 20260501234309 | 45 | 97 | 0.0 | 0.0 | 0.00 | 0.00 | 0.00 | 77 | 1026.1 |
| 20260501234209 | 45 | 97 | 0.0 | 0.0 | 0.00 | 0.00 | 0.00 | 77 | 1026.2 |
| 20260501234050 | 45 | 97 | 0.0 | 0.0 | 0.00 | 0.00 | 0.00 | 77 | 1026.2 |
| 20260501234021 | 44 | 97 | 0.0 | 0.0 | 0.00 | 0.00 | 0.00 | 77 | 1026.4 |
| 20260501233945 | 45 | 97 | 0.0 | 0.0 | 0.00 | 0.00 | 0.00 | 77 | 1026.1 |
| 20260501233848 | 45 | 97 | 0.0 | 0.0 | 0.00 | 0.00 | 0.00 | 77 | 1026.1 |
| 20260501233755 | 45 | 97 | 0.0 | 0.0 | 0.00 | 0.00 | 0.00 | 77 | 1026.1 |
| 20260501233700 | 45 | 97 | 0.0 | 0.0 | 0.00 | 0.00 | 0.00 | 77 | 1026.1 |
| 20260501233631 | 44 | 97 | 0.0 | 0.0 | 0.00 | 0.00 | 0.00 | 77 | 1026.3 |
| 20260501233550 | 45 | 97 | 0.0 | 0.0 | 0.00 | 0.00 | 0.00 | 78 | 1026.1 |
| 20260501233432 | 45 | 97 | 0.0 | 0.0 | 0.00 | 0.00 | 0.00 | 78 | 1026.2 |
| 20260501233315 | 45 | 97 | 0.0 | 0.0 | 0.00 | 0.00 | 0.00 | 78 | 1026.2 |
| 20260501233219 | 45 | 97 | 0.0 | 0.0 | 0.00 | 0.00 | 0.00 | 78 | 1026.2 |
| 20260501233135 | 45 | 97 | 0.0 | 0.0 | 0.00 | 0.00 | 0.00 | 78 | 1026.4 |
| 20260501233047 | 45 | 97 | 0.0 | 0.0 | 0.00 | 0.00 | 0.00 | 78 | 1026.2 |
| 20260501232955 | 45 | 97 | 0.0 | 0.0 | 0.00 | 0.00 | 0.00 | 78 | 1026.2 |
| 20260501232857 | 45 | 97 | 0.0 | 0.0 | 0.00 | 0.00 | 0.00 | 78 | 1026.2 |
| 20260501232751 | 45 | 97 | 0.0 | 0.0 | 0.00 | 0.00 | 0.00 | 78 | 1026.2 |
| 20260501232653 | 45 | 97 | 0.0 | 0.0 | 0.00 | 0.00 | 0.00 | 78 | 1026.3 |
| 20260501232533 | 45 | 97 | 0.0 | 0.0 | 0.00 | 0.00 | 0.00 | 78 | 1026.2 |
| 20260501232425 | 45 | 97 | 0.0 | 0.0 | 0.00 | 0.00 | 0.00 | 78 | 1026.2 |
| 20260501232311 | 45 | 97 | 0.0 | 0.0 | 0.00 | 0.00 | 0.00 | 78 | 1026.2 |
| 20260501232214 | 45 | 97 | 0.0 | 0.0 | 0.00 | 0.00 | 0.00 | 78 | 1026.2 |
| 20260501232054 | 45 | 97 | 0.0 | 0.0 | 0.00 | 0.00 | 0.00 | 78 | 1026.2 |
| 20260501232001 | 45 | 97 | 0.0 | 0.0 | 0.00 | 0.00 | 0.00 | 78 | 1026.4 |
| 20260501231928 | 45 | 97 | 0.0 | 0.0 | 0.00 | 0.00 | 0.00 | 78 | 1026.2 |
| 20260501231809 | 45 | 97 | 0.0 | 0.0 | 0.00 | 0.00 | 0.00 | 78 | 1026.2 |
| 20260501231712 | 46 | 97 | 0.0 | 0.0 | 0.00 | 0.00 | 0.00 | 78 | 1026.2 |
| 20260501231639 | 45 | 97 | 0.0 | 0.0 | 0.00 | 0.00 | 0.00 | 78 | 1026.4 |
| 20260501231607 | 46 | 97 | 0.0 | 0.0 | 0.00 | 0.00 | 0.00 | 78 | 1026.2 |
| 20260501231512 | 46 | 97 | 0.0 | 0.0 | 0.00 | 0.00 | 0.00 | 78 | 1026.2 |
| 20260501231413 | 46 | 97 | 0.0 | 0.0 | 0.00 | 0.00 | 0.00 | 78 | 1026.1 |
| 20260501231256 | 46 | 97 | 0.0 | 0.0 | 0.00 | 0.00 | 0.00 | 78 | 1026.1 |
| 20260501231149 | 46 | 97 | 0.0 | 0.0 | 0.00 | 0.00 | 0.00 | 78 | 1026.1 |
| 20260501231050 | 46 | 97 | 0.0 | 0.0 | 0.00 | 0.00 | 0.00 | 78 | 1026.2 |
| 20260501230815 | 46 | 97 | 0.0 | 0.0 | 0.00 | 0.00 | 0.00 | 78 | 1026.2 |
| 20260501230723 | 46 | 97 | 0.0 | 0.0 | 0.00 | 0.00 | 0.00 | 78 | 1026.1 |
| 20260501230604 | 46 | 97 | 0.0 | 0.0 | 0.00 | 0.00 | 0.00 | 78 | 1026.2 |
| 20260501230533 | 45 | 97 | 0.0 | 0.0 | 0.00 | 0.00 | 0.00 | 78 | 1026.4 |
| 20260501230458 | 46 | 97 | 0.0 | 0.0 | 0.00 | 0.00 | 0.00 | 78 | 1026.2 |
| 20260501230359 | 46 | 97 | 0.0 | 0.0 | 0.00 | 0.00 | 0.00 | 78 | 1026.2 |
| 20260501230303 | 46 | 97 | 0.0 | 0.0 | 0.00 | 0.00 | 0.00 | 78 | 1026.2 |
| 20260501230152 | 46 | 97 | 0.0 | 0.0 | 0.00 | 0.00 | 0.00 | 78 | 1026.2 |
| 20260501230058 | 46 | 97 | 0.0 | 0.0 | 0.00 | 0.00 | 0.00 | 78 | 1026.2 |
| 20260501230001 | 46 | 97 | 0.0 | 0.0 | 0.00 | 0.00 | 0.00 | 78 | 1026.2 |
| 20260501225843 | 46 | 97 | 0.0 | 0.0 | 0.00 | 0.00 | 0.00 | 78 | 1026.2 |
| 20260501225655 | 46 | 97 | 0.0 | 0.0 | 0.00 | 0.00 | 0.00 | 78 | 1026.2 |
| 20260501225556 | 46 | 97 | 0.0 | 0.0 | 0.00 | 0.00 | 0.00 | 78 | 1026.2 |
| 20260501225459 | 46 | 97 | 0.0 | 1.0 | 0.00 | 0.00 | 0.00 | 78 | 1026.2 |
| 20260501225207 | 46 | 97 | 0.0 | 2.0 | 0.00 | 0.00 | 0.00 | 77 | 1026.2 |
| 20260501225048 | 46 | 97 | 0.0 | 2.0 | 0.00 | 0.00 | 0.00 | 76 | 1026.2 |
| 20260501225018 | 45 | 97 | 0.0 | 2.0 | 0.00 | 0.00 | 0.00 | 76 | 1026.4 |
| 20260501224942 | 46 | 97 | 0.0 | 2.0 | 0.00 | 0.00 | 0.00 | 76 | 1026.2 |
| 20260501224846 | 46 | 97 | 0.0 | 2.0 | 0.00 | 0.00 | 0.00 | 76 | 1026.2 |
| 20260501224706 | 46 | 97 | 1.0 | 2.0 | 0.00 | 0.00 | 0.00 | 76 | 1026.2 |
| 20260501224609 | 46 | 97 | 1.0 | 2.0 | 0.00 | 0.00 | 0.00 | 76 | 1026.2 |
| 20260501224556 | 46 | 97 | 1.0 | 2.0 | 0.00 | 0.00 | 0.00 | 76 | 1026.4 |
| 20260501224458 | 46 | 97 | 1.0 | 2.0 | 0.00 | 0.00 | 0.00 | 76 | 1026.2 |
| 20260501224406 | 46 | 97 | 1.0 | 2.0 | 0.00 | 0.00 | 0.00 | 76 | 1026.2 |
| 20260501224310 | 46 | 97 | 0.0 | 1.0 | 0.00 | 0.00 | 0.00 | 76 | 1026.2 |
| 20260501224204 | 46 | 97 | 0.0 | 0.0 | 0.00 | 0.00 | 0.00 | 76 | 1026.2 |
| 20260501224108 | 46 | 97 | 0.0 | 0.0 | 0.00 | 0.00 | 0.00 | 75 | 1026.2 |
| 20260501224009 | 46 | 97 | 0.0 | 0.0 | 0.00 | 0.00 | 0.00 | 75 | 1026.2 |
| 20260501223913 | 46 | 97 | 0.0 | 0.0 | 0.00 | 0.00 | 0.00 | 76 | 1026.2 |
| 20260501223811 | 46 | 97 | 0.0 | 0.0 | 0.00 | 0.00 | 0.00 | 76 | 1026.2 |
| 20260501223712 | 46 | 97 | 0.0 | 0.0 | 0.00 | 0.00 | 0.00 | 76 | 1026.2 |
| 20260501223514 | 46 | 97 | 0.0 | 1.0 | 0.00 | 0.00 | 0.00 | 75 | 1026.5 |
| 20260501223434 | 46 | 97 | 0.0 | 2.0 | 0.00 | 0.00 | 0.00 | 75 | 1026.3 |
| 20260501223339 | 47 | 97 | 0.0 | 2.0 | 0.00 | 0.00 | 0.00 | 75 | 1026.2 |
| 20260501223241 | 47 | 97 | 0.0 | 2.0 | 0.00 | 0.00 | 0.00 | 75 | 1026.2 |
| 20260501223135 | 47 | 97 | 0.0 | 3.0 | 0.00 | 0.00 | 0.00 | 75 | 1026.3 |
| 20260501223040 | 47 | 97 | 0.0 | 3.0 | 0.00 | 0.00 | 0.00 | 75 | 1026.3 |
| 20260501222943 | 47 | 97 | 0.0 | 3.0 | 0.00 | 0.00 | 0.00 | 75 | 1026.3 |
| 20260501222847 | 47 | 97 | 0.0 | 3.0 | 0.00 | 0.00 | 0.00 | 75 | 1026.3 |
| 20260501222743 | 47 | 97 | 1.0 | 3.0 | 0.00 | 0.00 | 0.00 | 74 | 1026.3 |
| 20260501222644 | 47 | 97 | 0.0 | 3.0 | 0.00 | 0.00 | 0.00 | 74 | 1026.4 |
| 20260501222545 | 47 | 97 | 1.0 | 3.0 | 0.00 | 0.00 | 0.00 | 74 | 1026.4 |
| 20260501222450 | 47 | 97 | 1.0 | 3.0 | 0.00 | 0.00 | 0.00 | 74 | 1026.3 |
| 20260501222327 | 47 | 97 | 0.0 | 2.0 | 0.00 | 0.00 | 0.00 | 75 | 1026.3 |
| 20260501222230 | 47 | 97 | 0.0 | 0.0 | 0.00 | 0.00 | 0.00 | 75 | 1026.2 |
| 20260501222100 | 47 | 97 | 0.0 | 0.0 | 0.00 | 0.00 | 0.00 | 75 | 1026.2 |
| 20260501222002 | 47 | 97 | 0.0 | 0.0 | 0.00 | 0.00 | 0.00 | 74 | 1026.2 |
| 20260501221903 | 47 | 97 | 0.0 | 0.0 | 0.00 | 0.00 | 0.00 | 74 | 1026.3 |
| 20260501221757 | 48 | 97 | 0.0 | 0.0 | 0.00 | 0.00 | 0.00 | 74 | 1026.2 |
| 20260501221643 | 48 | 97 | 0.0 | 0.0 | 0.00 | 0.00 | 0.00 | 74 | 1026.3 |
| 20260501221544 | 48 | 97 | 0.0 | 0.0 | 0.00 | 0.00 | 0.00 | 74 | 1026.2 |
| 20260501221449 | 48 | 97 | 0.0 | 0.0 | 0.00 | 0.00 | 0.00 | 74 | 1026.2 |
| 20260501221321 | 48 | 97 | 0.0 | 0.0 | 0.00 | 0.00 | 0.00 | 73 | 1026.2 |
| 20260501221222 | 48 | 97 | 0.0 | 0.0 | 0.00 | 0.00 | 0.00 | 73 | 1026.2 |
| 20260501221126 | 48 | 97 | 0.0 | 0.0 | 0.00 | 0.00 | 0.00 | 73 | 1026.2 |
| 20260501221057 | 47 | 97 | 0.0 | 0.0 | 0.00 | 0.00 | 0.00 | 74 | 1026.4 |
| 20260501220959 | 48 | 97 | 0.0 | 0.0 | 0.00 | 0.00 | 0.00 | 74 | 1026.3 |
| 20260501220901 | 48 | 97 | 0.0 | 0.0 | 0.00 | 0.00 | 0.00 | 74 | 1026.2 |
| 20260501220804 | 48 | 97 | 0.0 | 0.0 | 0.00 | 0.00 | 0.00 | 74 | 1026.2 |
| 20260501220657 | 48 | 97 | 0.0 | 0.0 | 0.00 | 0.00 | 0.00 | 74 | 1026.3 |
| 20260501220559 | 48 | 97 | 0.0 | 0.0 | 0.00 | 0.00 | 0.00 | 74 | 1026.3 |
| 20260501220502 | 48 | 97 | 0.0 | 0.0 | 0.00 | 0.00 | 0.00 | 74 | 1026.3 |
| 20260501220406 | 48 | 97 | 0.0 | 0.0 | 0.00 | 0.00 | 0.00 | 74 | 1026.3 |
| 20260501220303 | 48 | 97 | 0.0 | 0.0 | 0.00 | 0.00 | 0.00 | 74 | 1026.3 |
| 20260501220204 | 48 | 97 | 0.0 | 0.0 | 0.00 | 0.00 | 0.00 | 74 | 1026.3 |
| 20260501220105 | 48 | 97 | 0.0 | 0.0 | 0.00 | 0.00 | 0.00 | 74 | 1026.3 |
| 20260501220011 | 47 | 97 | 0.0 | 0.0 | 0.00 | 0.00 | 0.00 | 74 | 1026.5 |
| 20260501215935 | 48 | 97 | 0.0 | 0.0 | 0.00 | 0.00 | 0.00 | 75 | 1026.2 |
| 20260501215838 | 48 | 97 | 0.0 | 0.0 | 0.00 | 0.00 | 0.00 | 75 | 1026.3 |
| 20260501215741 | 48 | 97 | 0.0 | 0.0 | 0.00 | 0.00 | 0.00 | 75 | 1026.3 |
| 20260501215648 | 48 | 97 | 0.0 | 0.0 | 0.00 | 0.00 | 0.00 | 75 | 1026.3 |
| 20260501215624 | 47 | 97 | 0.0 | 0.0 | 0.00 | 0.00 | 0.00 | 74 | 1026.5 |
| 20260501215540 | 48 | 97 | 0.0 | 0.0 | 0.00 | 0.00 | 0.00 | 75 | 1026.3 |
| 20260501215444 | 48 | 97 | 0.0 | 0.0 | 0.00 | 0.00 | 0.00 | 75 | 1026.2 |
| 20260501215346 | 48 | 97 | 0.0 | 0.0 | 0.00 | 0.00 | 0.00 | 74 | 1026.2 |
| 20260501215238 | 48 | 97 | 0.0 | 0.0 | 0.00 | 0.00 | 0.00 | 75 | 1026.3 |
| 20260501215141 | 48 | 97 | 0.0 | 0.0 | 0.00 | 0.00 | 0.00 | 75 | 1026.2 |
| 20260501215042 | 48 | 97 | 0.0 | 0.0 | 0.00 | 0.00 | 0.00 | 75 | 1026.2 |
| 20260501215011 | 47 | 97 | 0.0 | 0.0 | 0.00 | 0.00 | 0.00 | 75 | 1026.4 |
| 20260501214940 | 48 | 97 | 0.0 | 0.0 | 0.00 | 0.00 | 0.00 | 74 | 1026.2 |
| 20260501214842 | 48 | 97 | 0.0 | 0.0 | 0.00 | 0.00 | 0.00 | 75 | 1026.2 |
| 20260501214745 | 48 | 97 | 0.0 | 0.0 | 0.00 | 0.00 | 0.00 | 74 | 1026.2 |
| 20260501214627 | 48 | 97 | 0.0 | 0.0 | 0.00 | 0.00 | 0.00 | 74 | 1026.2 |
| 20260501214602 | 47 | 97 | 0.0 | 0.0 | 0.00 | 0.00 | 0.00 | 74 | 1026.4 |